GFSNGP_prec_precacc24_213.txt.gz
Total_Precipitation_Accumulation
0.01 0.01 0.01 0.01 0.00 0.01 0.04 0.05 0.12 0.11 0.05 0.02 0.03 0.04 0.01 0.00 0.01 0.01 0.00 0.03 0.14 0.21 0.16 0.24 0.42 0.60 0.77 0.72 0.60 0.67 0.63 0.48 0.40 0.34 0.31 0.40 0.47 0.38 0.32 0.33 0.37 0.42 0.43 0.33
0.02 0.00 0.00 0.00 0.00 0.00 0.01 0.02 0.04 0.08 0.10 0.04 0.03 0.01 0.00 0.01 0.01 0.03 0.08 0.15 0.14 0.13 0.16 0.21 0.31 0.45 0.49 0.58 0.59 0.61 0.63 0.58 0.53 0.51 0.49 0.50 0.55 0.53 0.41 0.40 0.33 0.32 0.44 0.45
0.12 0.00 0.01 0.02 0.00 0.01 0.04 0.03 0.11 0.17 0.11 0.02 0.01 0.02 0.04 0.04 0.07 0.23 0.44 0.45 0.41 0.55 0.41 0.19 0.15 0.17 0.31 0.42 0.45 0.75 0.64 0.53 0.41 0.45 0.52 0.53 0.55 0.62 0.63 0.55 0.44 0.43 0.38 0.35
0.15 0.04 0.09 0.01 0.02 0.09 0.11 0.03 0.08 0.13 0.07 0.07 0.13 0.15 0.23 0.34 0.68 0.90 0.75 0.52 0.41 0.28 0.13 0.07 0.01 0.04 0.15 0.35 0.45 0.50 0.50 0.67 0.51 0.43 0.48 0.52 0.59 0.55 0.60 0.64 0.60 0.64 0.64 0.50
0.15 0.11 0.04 0.01 0.09 0.16 0.13 0.08 0.18 0.30 0.19 0.22 0.10 0.21 0.37 0.40 0.70 0.60 0.28 0.12 0.10 0.06 0.01 0.00 0.00 0.00 0.00 0.04 0.28 0.57 0.61 0.66 0.68 0.46 0.37 0.42 0.47 0.42 0.41 0.47 0.54 0.56 0.51 0.48
0.15 0.25 0.12 0.01 0.06 0.05 0.07 0.21 0.32 0.57 0.49 0.44 0.40 0.56 0.26 0.10 0.23 0.16 0.05 0.04 0.03 0.01 0.00 0.00 0.00 0.01 0.00 0.01 0.08 0.31 0.75 0.62 0.62 0.55 0.35 0.36 0.33 0.33 0.37 0.36 0.40 0.42 0.39 0.32
0.20 0.36 0.22 0.12 0.11 0.15 0.43 0.53 0.52 0.48 0.50 0.50 0.43 0.39 0.18 0.10 0.08 0.02 0.01 0.00 0.00 0.00 0.00 0.00 0.00 0.00 0.00 0.01 0.02 0.06 0.35 0.67 0.63 0.65 0.42 0.36 0.33 0.32 0.31 0.35 0.38 0.41 0.40 0.39
0.09 0.18 0.14 0.12 0.20 0.42 0.54 0.50 0.28 0.24 0.16 0.19 0.11 0.08 0.11 0.03 0.00 0.00 0.00 0.00 0.00 0.00 0.00 0.00 0.01 0.00 0.00 0.01 0.00 0.00 0.04 0.26 0.57 0.59 0.48 0.39 0.37 0.36 0.32 0.27 0.26 0.31 0.38 0.42
0.08 0.04 0.05 0.16 0.48 0.35 0.54 0.61 0.27 0.17 0.07 0.11 0.07 0.08 0.03 0.00 0.00 0.00 0.00 0.00 0.00 0.00 0.00 0.00 0.01 0.01 0.00 0.00 0.00 0.00 0.02 0.04 0.25 0.57 0.53 0.34 0.46 0.44 0.32 0.25 0.18 0.23 0.22 0.20
0.09 0.03 0.16 0.21 0.13 0.25 0.41 0.31 0.12 0.08 0.12 0.12 0.14 0.06 0.01 0.00 0.00 0.00 0.00 0.00 0.00 0.00 0.00 0.02 0.05 0.18 0.10 0.02 0.01 0.00 0.01 0.02 0.05 0.24 0.62 0.49 0.39 0.36 0.27 0.20 0.17 0.18 0.18 0.19
0.10 0.08 0.12 0.05 0.13 0.15 0.06 0.02 0.06 0.18 0.16 0.09 0.02 0.00 0.00 0.00 0.00 0.00 0.00 0.00 0.00 0.01 0.01 0.03 0.05 0.10 0.37 0.24 0.04 0.01 0.03 0.06 0.08 0.05 0.19 0.51 0.50 0.43 0.29 0.18 0.11 0.12 0.14 0.10
0.13 0.11 0.31 0.08 0.01 0.04 0.06 0.07 0.08 0.03 0.01 0.00 0.00 0.00 0.00 0.00 0.00 0.00 0.00 0.00 0.00 0.00 0.01 0.00 0.01 0.03 0.06 0.38 0.24 0.09 0.09 0.07 0.16 0.12 0.13 0.26 0.45 0.61 0.60 0.27 0.12 0.10 0.10 0.10
0.20 0.13 0.12 0.08 0.02 0.04 0.08 0.04 0.01 0.01 0.01 0.00 0.00 0.00 0.00 0.00 0.00 0.00 0.00 0.01 0.01 0.06 0.02 0.01 0.03 0.05 0.03 0.08 0.32 0.22 0.13 0.14 0.16 0.25 0.17 0.17 0.26 0.30 0.48 0.48 0.27 0.11 0.07 0.06
0.16 0.34 0.23 0.06 0.08 0.05 0.01 0.00 0.01 0.01 0.01 0.00 0.00 0.00 0.00 0.00 0.00 0.00 0.00 0.00 0.01 0.01 0.02 0.02 0.05 0.08 0.03 0.01 0.10 0.26 0.18 0.17 0.15 0.18 0.22 0.19 0.17 0.22 0.34 0.32 0.29 0.26 0.15 0.06
0.16 0.16 0.12 0.04 0.01 0.00 0.00 0.00 0.00 0.00 0.00 0.00 0.00 0.00 0.00 0.00 0.01 0.02 0.02 0.01 0.01 0.03 0.05 0.04 0.04 0.08 0.07 0.03 0.03 0.14 0.23 0.17 0.14 0.19 0.28 0.36 0.28 0.20 0.30 0.38 0.28 0.15 0.14 0.16
0.01 0.03 0.02 0.00 0.00 0.00 0.00 0.01 0.01 0.00 0.00 0.00 0.00 0.00 0.01 0.01 0.02 0.01 0.01 0.02 0.06 0.06 0.08 0.13 0.18 0.16 0.14 0.08 0.07 0.18 0.33 0.35 0.26 0.23 0.31 0.37 0.34 0.23 0.24 0.29 0.26 0.24 0.17 0.09
0.01 0.01 0.01 0.00 0.01 0.01 0.01 0.02 0.03 0.03 0.01 0.00 0.01 0.00 0.01 0.01 0.02 0.02 0.02 0.03 0.16 0.23 0.27 0.30 0.32 0.31 0.30 0.30 0.27 0.28 0.30 0.36 0.30 0.20 0.19 0.22 0.23 0.23 0.20 0.18 0.18 0.21 0.15 0.10
0.01 0.01 0.01 0.02 0.02 0.01 0.01 0.01 0.01 0.01 0.01 0.01 0.01 0.00 0.00 0.00 0.01 0.02 0.02 0.01 0.12 0.24 0.22 0.24 0.37 0.40 0.37 0.34 0.28 0.29 0.30 0.29 0.32 0.28 0.19 0.20 0.20 0.22 0.23 0.20 0.18 0.19 0.19 0.19
0.00 0.00 0.00 0.00 0.01 0.00 0.00 0.01 0.00 0.01 0.01 0.01 0.00 0.00 0.00 0.02 0.02 0.06 0.08 0.11 0.23 0.25 0.16 0.18 0.31 0.38 0.32 0.29 0.29 0.27 0.29 0.29 0.31 0.36 0.28 0.21 0.21 0.19 0.20 0.22 0.20 0.17 0.17 0.19
0.01 0.00 0.00 0.00 0.01 0.02 0.02 0.01 0.00 0.00 0.00 0.00 0.00 0.00 0.00 0.01 0.02 0.07 0.17 0.20 0.22 0.15 0.09 0.07 0.15 0.24 0.33 0.35 0.32 0.30 0.37 0.37 0.32 0.29 0.27 0.22 0.17 0.14 0.15 0.17 0.16 0.17 0.17 0.15
0.01 0.01 0.00 0.01 0.00 0.00 0.00 0.00 0.00 0.01 0.00 0.00 0.01 0.01 0.00 0.00 0.02 0.06 0.11 0.16 0.21 0.16 0.12 0.08 0.06 0.10 0.17 0.26 0.32 0.36 0.41 0.43 0.39 0.35 0.30 0.23 0.20 0.17 0.14 0.14 0.15 0.15 0.16 0.14
0.01 0.01 0.00 0.00 0.00 0.00 0.00 0.00 0.00 0.00 0.00 0.01 0.02 0.02 0.02 0.02 0.01 0.01 0.06 0.15 0.21 0.24 0.24 0.15 0.06 0.09 0.11 0.15 0.19 0.26 0.30 0.31 0.33 0.35 0.36 0.35 0.31 0.25 0.19 0.15 0.13 0.12 0.14 0.13
0.00 0.00 0.00 0.00 0.00 0.00 0.00 0.00 0.01 0.01 0.02 0.04 0.04 0.03 0.02 0.02 0.01 0.01 0.02 0.01 0.01 0.05 0.12 0.18 0.16 0.14 0.16 0.13 0.14 0.18 0.22 0.25 0.27 0.27 0.26 0.27 0.28 0.25 0.23 0.20 0.17 0.13 0.11 0.11
0.00 0.00 0.00 0.00 0.00 0.00 0.00 0.00 0.01 0.01 0.02 0.03 0.03 0.03 0.02 0.02 0.01 0.01 0.01 0.01 0.02 0.02 0.01 0.03 0.07 0.10 0.14 0.10 0.10 0.13 0.14 0.17 0.21 0.24 0.24 0.25 0.25 0.23 0.21 0.18 0.18 0.15 0.11 0.09
0.00 0.00 0.00 0.01 0.01 0.01 0.01 0.01 0.00 0.01 0.01 0.01 0.01 0.01 0.01 0.02 0.04 0.02 0.02 0.01 0.01 0.01 0.02 0.01 0.03 0.06 0.09 0.10 0.09 0.09 0.09 0.10 0.15 0.18 0.19 0.19 0.19 0.19 0.18 0.15 0.13 0.11 0.09 0.06
0.03 0.05 0.04 0.03 0.03 0.03 0.03 0.03 0.03 0.02 0.02 0.01 0.00 0.01 0.02 0.02 0.03 0.03 0.02 0.02 0.02 0.02 0.02 0.02 0.02 0.03 0.04 0.07 0.08 0.08 0.07 0.07 0.10 0.11 0.12 0.13 0.14 0.15 0.14 0.13 0.11 0.12 0.09 0.06
0.03 0.02 0.01 0.01 0.01 0.02 0.03 0.04 0.03 0.02 0.02 0.05 0.04 0.02 0.03 0.04 0.04 0.03 0.04 0.04 0.04 0.04 0.02 0.02 0.04 0.05 0.04 0.05 0.06 0.06 0.08 0.07 0.08 0.08 0.06 0.07 0.08 0.09 0.10 0.11 0.09 0.08 0.08 0.07

GFSNGP_prec_precacc24_216.txt.gz
Total_Precipitation_Accumulation
0.00 0.00 0.01 0.03 0.04 0.05 0.13 0.12 0.23 0.12 0.02 0.01 0.03 0.04 0.01 0.00 0.01 0.01 0.00 0.03 0.14 0.19 0.05 0.05 0.08 0.29 0.68 0.71 0.60 0.67 0.63 0.48 0.40 0.34 0.31 0.40 0.47 0.38 0.32 0.33 0.37 0.43 0.43 0.33
0.01 0.00 0.00 0.00 0.00 0.01 0.00 0.01 0.03 0.07 0.08 0.04 0.03 0.01 0.00 0.01 0.01 0.03 0.08 0.15 0.14 0.15 0.22 0.28 0.29 0.31 0.41 0.53 0.56 0.60 0.62 0.58 0.53 0.51 0.49 0.50 0.55 0.53 0.41 0.40 0.33 0.32 0.44 0.45
0.09 0.00 0.01 0.01 0.00 0.00 0.02 0.02 0.08 0.16 0.11 0.02 0.01 0.02 0.04 0.04 0.07 0.23 0.44 0.45 0.41 0.60 0.53 0.32 0.29 0.21 0.29 0.40 0.40 0.75 0.63 0.53 0.41 0.45 0.52 0.53 0.55 0.62 0.62 0.52 0.42 0.42 0.38 0.34
0.13 0.03 0.08 0.00 0.01 0.07 0.09 0.03 0.05 0.13 0.06 0.06 0.13 0.15 0.23 0.33 0.68 0.91 0.75 0.52 0.41 0.29 0.16 0.13 0.04 0.05 0.15 0.36 0.45 0.49 0.50 0.67 0.51 0.43 0.48 0.52 0.59 0.54 0.57 0.59 0.54 0.55 0.56 0.46
0.09 0.07 0.03 0.01 0.08 0.15 0.13 0.08 0.17 0.30 0.19 0.22 0.10 0.21 0.37 0.40 0.71 0.60 0.29 0.12 0.10 0.08 0.04 0.05 0.02 0.01 0.03 0.06 0.28 0.56 0.60 0.65 0.68 0.46 0.37 0.42 0.47 0.42 0.40 0.46 0.53 0.53 0.48 0.47
0.06 0.13 0.07 0.01 0.04 0.04 0.06 0.20 0.30 0.55 0.47 0.43 0.37 0.53 0.26 0.10 0.23 0.17 0.06 0.04 0.04 0.02 0.01 0.03 0.03 0.03 0.02 0.00 0.08 0.31 0.74 0.61 0.62 0.55 0.35 0.36 0.33 0.33 0.37 0.36 0.41 0.42 0.39 0.35
0.16 0.27 0.20 0.10 0.07 0.09 0.36 0.48 0.48 0.44 0.46 0.46 0.39 0.38 0.18 0.11 0.09 0.03 0.01 0.01 0.01 0.00 0.00 0.00 0.00 0.00 0.00 0.00 0.01 0.05 0.35 0.67 0.63 0.65 0.42 0.36 0.32 0.32 0.31 0.35 0.38 0.42 0.41 0.41
0.08 0.17 0.13 0.07 0.08 0.26 0.32 0.34 0.26 0.23 0.16 0.19 0.11 0.08 0.12 0.09 0.06 0.02 0.01 0.01 0.00 0.00 0.00 0.00 0.01 0.00 0.00 0.00 0.00 0.00 0.04 0.26 0.57 0.56 0.41 0.32 0.33 0.35 0.33 0.27 0.27 0.32 0.40 0.45
0.06 0.04 0.01 0.04 0.26 0.24 0.46 0.58 0.27 0.17 0.07 0.12 0.09 0.13 0.18 0.10 0.02 0.01 0.00 0.00 0.00 0.00 0.00 0.00 0.00 0.00 0.00 0.00 0.00 0.00 0.01 0.04 0.24 0.51 0.46 0.27 0.43 0.44 0.33 0.25 0.19 0.23 0.23 0.23
0.03 0.00 0.01 0.04 0.06 0.19 0.38 0.30 0.12 0.08 0.13 0.16 0.21 0.15 0.04 0.00 0.00 0.00 0.00 0.00 0.00 0.00 0.01 0.02 0.02 0.02 0.04 0.02 0.01 0.00 0.01 0.02 0.04 0.21 0.59 0.47 0.39 0.36 0.28 0.21 0.19 0.18 0.19 0.22
0.03 0.05 0.05 0.03 0.13 0.15 0.06 0.02 0.06 0.18 0.16 0.10 0.03 0.01 0.00 0.00 0.00 0.00 0.00 0.00 0.00 0.01 0.01 0.03 0.05 0.06 0.26 0.22 0.03 0.01 0.03 0.05 0.07 0.04 0.18 0.50 0.50 0.43 0.29 0.20 0.15 0.14 0.15 0.13
0.08 0.08 0.25 0.07 0.01 0.04 0.06 0.07 0.08 0.03 0.01 0.00 0.00 0.00 0.00 0.00 0.00 0.00 0.00 0.00 0.00 0.00 0.01 0.01 0.01 0.03 0.06 0.38 0.24 0.09 0.09 0.07 0.16 0.12 0.12 0.26 0.45 0.61 0.61 0.30 0.18 0.14 0.12 0.13
0.07 0.05 0.10 0.08 0.02 0.04 0.08 0.04 0.01 0.01 0.01 0.00 0.00 0.00 0.00 0.00 0.00 0.00 0.00 0.01 0.01 0.06 0.02 0.01 0.02 0.04 0.03 0.08 0.32 0.22 0.13 0.14 0.16 0.26 0.17 0.17 0.27 0.32 0.50 0.51 0.34 0.20 0.11 0.08
0.07 0.26 0.21 0.06 0.07 0.05 0.01 0.00 0.01 0.01 0.01 0.00 0.00 0.00 0.00 0.00 0.00 0.00 0.00 0.00 0.01 0.01 0.02 0.02 0.03 0.05 0.02 0.01 0.10 0.27 0.19 0.19 0.16 0.18 0.23 0.20 0.19 0.26 0.39 0.36 0.34 0.35 0.24 0.10
0.12 0.15 0.12 0.04 0.01 0.00 0.00 0.00 0.00 0.00 0.00 0.00 0.00 0.00 0.00 0.00 0.01 0.02 0.02 0.01 0.01 0.00 0.01 0.01 0.02 0.03 0.05 0.03 0.04 0.14 0.23 0.17 0.14 0.19 0.28 0.37 0.30 0.23 0.34 0.41 0.31 0.20 0.20 0.24
0.01 0.03 0.02 0.00 0.00 0.00 0.00 0.01 0.01 0.00 0.00 0.00 0.00 0.00 0.01 0.01 0.01 0.01 0.01 0.01 0.00 0.02 0.04 0.09 0.10 0.09 0.13 0.08 0.08 0.18 0.33 0.36 0.26 0.23 0.31 0.38 0.35 0.25 0.27 0.31 0.29 0.27 0.21 0.12
0.01 0.02 0.02 0.01 0.01 0.00 0.00 0.01 0.03 0.03 0.01 0.00 0.01 0.00 0.00 0.01 0.01 0.01 0.01 0.01 0.01 0.06 0.12 0.19 0.23 0.26 0.29 0.30 0.27 0.28 0.30 0.36 0.31 0.21 0.19 0.23 0.25 0.25 0.23 0.20 0.19 0.24 0.17 0.14
0.01 0.01 0.01 0.01 0.01 0.01 0.00 0.00 0.01 0.01 0.01 0.01 0.01 0.00 0.00 0.00 0.01 0.01 0.01 0.01 0.04 0.11 0.14 0.21 0.36 0.39 0.37 0.34 0.28 0.29 0.30 0.29 0.32 0.29 0.19 0.20 0.21 0.24 0.26 0.24 0.20 0.21 0.21 0.25
0.00 0.00 0.00 0.00 0.01 0.01 0.01 0.02 0.02 0.02 0.02 0.01 0.01 0.00 0.00 0.01 0.01 0.03 0.07 0.09 0.22 0.19 0.13 0.17 0.31 0.38 0.32 0.29 0.29 0.27 0.30 0.30 0.31 0.36 0.28 0.22 0.21 0.20 0.23 0.25 0.22 0.18 0.18 0.24
0.01 0.00 0.01 0.02 0.04 0.09 0.08 0.07 0.05 0.02 0.01 0.01 0.00 0.00 0.00 0.00 0.00 0.05 0.15 0.18 0.22 0.14 0.09 0.07 0.15 0.24 0.33 0.35 0.32 0.30 0.37 0.37 0.33 0.30 0.28 0.24 0.18 0.15 0.16 0.20 0.19 0.18 0.19 0.18
0.03 0.03 0.03 0.02 0.01 0.01 0.02 0.02 0.01 0.01 0.00 0.00 0.01 0.01 0.01 0.02 0.02 0.03 0.03 0.11 0.19 0.16 0.11 0.08 0.06 0.10 0.17 0.26 0.32 0.36 0.41 0.44 0.40 0.36 0.32 0.25 0.22 0.18 0.15 0.16 0.17 0.17 0.19 0.17
0.01 0.01 0.00 0.00 0.00 0.00 0.00 0.00 0.00 0.00 0.00 0.01 0.03 0.04 0.05 0.06 0.04 0.03 0.01 0.05 0.16 0.22 0.22 0.14 0.06 0.09 0.11 0.15 0.19 0.26 0.30 0.31 0.34 0.36 0.39 0.39 0.35 0.28 0.22 0.18 0.16 0.15 0.16 0.16
0.01 0.00 0.00 0.00 0.00 0.00 0.00 0.00 0.00 0.01 0.02 0.04 0.06 0.05 0.04 0.04 0.02 0.02 0.01 0.00 0.01 0.04 0.11 0.18 0.16 0.14 0.16 0.13 0.14 0.18 0.22 0.25 0.27 0.28 0.28 0.31 0.34 0.32 0.30 0.26 0.22 0.18 0.15 0.15
0.01 0.00 0.00 0.00 0.00 0.00 0.01 0.01 0.01 0.02 0.04 0.07 0.06 0.04 0.03 0.02 0.01 0.01 0.01 0.00 0.01 0.01 0.01 0.03 0.07 0.10 0.14 0.10 0.10 0.13 0.14 0.18 0.21 0.24 0.25 0.28 0.30 0.31 0.30 0.26 0.26 0.22 0.17 0.13
0.00 0.00 0.00 0.01 0.02 0.03 0.03 0.01 0.01 0.02 0.02 0.02 0.02 0.01 0.01 0.02 0.04 0.02 0.02 0.01 0.01 0.01 0.01 0.01 0.03 0.06 0.09 0.10 0.09 0.09 0.09 0.11 0.15 0.18 0.19 0.21 0.22 0.24 0.26 0.24 0.21 0.20 0.16 0.12
0.03 0.04 0.04 0.03 0.04 0.04 0.04 0.03 0.03 0.02 0.01 0.01 0.00 0.01 0.02 0.02 0.03 0.03 0.02 0.02 0.02 0.02 0.02 0.02 0.02 0.03 0.04 0.07 0.08 0.08 0.07 0.07 0.10 0.11 0.13 0.14 0.16 0.18 0.20 0.21 0.20 0.20 0.17 0.13
0.03 0.02 0.01 0.01 0.01 0.02 0.04 0.04 0.03 0.02 0.01 0.02 0.03 0.01 0.03 0.04 0.04 0.03 0.04 0.04 0.04 0.04 0.02 0.02 0.04 0.05 0.04 0.05 0.06 0.06 0.08 0.07 0.08 0.08 0.06 0.07 0.09 0.11 0.14 0.16 0.16 0.15 0.15 0.14

GFSNGP_prec_precacc24_222.txt.gz
Total_Precipitation_Accumulation
0.00 0.00 0.01 0.05 0.08 0.10 0.18 0.14 0.30 0.13 0.03 0.01 0.03 0.04 0.01 0.00 0.01 0.01 0.00 0.03 0.13 0.18 0.04 0.04 0.06 0.18 0.35 0.36 0.28 0.24 0.22 0.16 0.13 0.14 0.17 0.22 0.29 0.28 0.29 0.32 0.36 0.42 0.43 0.33
0.00 0.00 0.00 0.00 0.00 0.01 0.00 0.01 0.04 0.07 0.07 0.04 0.03 0.01 0.00 0.00 0.01 0.02 0.08 0.15 0.14 0.14 0.21 0.26 0.38 0.53 0.49 0.22 0.18 0.11 0.13 0.17 0.21 0.27 0.36 0.42 0.48 0.50 0.40 0.40 0.33 0.32 0.44 0.45
0.08 0.00 0.00 0.01 0.00 0.00 0.00 0.01 0.06 0.12 0.09 0.02 0.00 0.01 0.03 0.03 0.06 0.21 0.43 0.45 0.39 0.58 0.52 0.34 0.43 0.52 0.65 0.51 0.29 0.28 0.20 0.18 0.20 0.30 0.45 0.51 0.55 0.62 0.62 0.51 0.42 0.42 0.38 0.34
0.12 0.02 0.05 0.00 0.00 0.00 0.01 0.02 0.01 0.04 0.03 0.01 0.06 0.14 0.19 0.31 0.62 0.86 0.73 0.51 0.36 0.22 0.09 0.10 0.26 0.26 0.46 0.69 0.58 0.42 0.23 0.25 0.31 0.37 0.47 0.52 0.59 0.54 0.57 0.57 0.52 0.53 0.55 0.44
0.07 0.04 0.02 0.00 0.02 0.02 0.00 0.01 0.05 0.12 0.03 0.02 0.03 0.17 0.31 0.33 0.65 0.58 0.29 0.13 0.11 0.09 0.04 0.06 0.25 0.27 0.46 0.43 0.26 0.23 0.31 0.38 0.42 0.41 0.37 0.42 0.47 0.42 0.40 0.46 0.52 0.52 0.47 0.43
0.04 0.06 0.04 0.00 0.03 0.03 0.02 0.10 0.12 0.11 0.12 0.19 0.27 0.41 0.17 0.08 0.22 0.18 0.07 0.05 0.05 0.03 0.02 0.04 0.09 0.14 0.20 0.11 0.06 0.15 0.45 0.40 0.40 0.44 0.35 0.36 0.34 0.33 0.37 0.36 0.41 0.42 0.39 0.35
0.15 0.23 0.19 0.10 0.05 0.03 0.11 0.10 0.03 0.07 0.17 0.29 0.35 0.35 0.16 0.09 0.07 0.05 0.04 0.03 0.02 0.01 0.00 0.00 0.00 0.00 0.01 0.00 0.01 0.04 0.29 0.55 0.47 0.52 0.39 0.35 0.32 0.32 0.31 0.35 0.38 0.41 0.40 0.40
0.08 0.16 0.12 0.05 0.03 0.01 0.02 0.01 0.05 0.15 0.14 0.18 0.11 0.08 0.12 0.10 0.13 0.09 0.05 0.02 0.01 0.00 0.00 0.00 0.01 0.00 0.00 0.00 0.00 0.00 0.04 0.25 0.51 0.51 0.35 0.31 0.29 0.33 0.32 0.27 0.25 0.30 0.38 0.43
0.05 0.04 0.01 0.01 0.02 0.01 0.04 0.10 0.08 0.14 0.07 0.12 0.09 0.13 0.19 0.12 0.03 0.02 0.00 0.00 0.00 0.00 0.00 0.00 0.00 0.00 0.00 0.00 0.00 0.00 0.00 0.04 0.24 0.50 0.39 0.24 0.26 0.30 0.29 0.24 0.18 0.22 0.22 0.23
0.03 0.00 0.00 0.00 0.01 0.04 0.11 0.12 0.07 0.07 0.12 0.16 0.21 0.16 0.04 0.00 0.00 0.00 0.00 0.00 0.00 0.00 0.01 0.02 0.02 0.02 0.00 0.00 0.00 0.00 0.00 0.00 0.04 0.20 0.50 0.38 0.30 0.28 0.22 0.18 0.18 0.18 0.19 0.22
0.02 0.00 0.00 0.02 0.07 0.10 0.06 0.02 0.05 0.17 0.16 0.10 0.03 0.01 0.01 0.00 0.00 0.00 0.00 0.00 0.00 0.01 0.01 0.03 0.05 0.05 0.01 0.00 0.00 0.00 0.00 0.00 0.01 0.03 0.15 0.40 0.38 0.38 0.30 0.21 0.18 0.15 0.16 0.13
0.01 0.01 0.02 0.01 0.01 0.04 0.05 0.04 0.07 0.03 0.01 0.00 0.00 0.00 0.00 0.00 0.00 0.00 0.00 0.00 0.00 0.00 0.01 0.01 0.01 0.03 0.01 0.01 0.01 0.01 0.01 0.01 0.02 0.03 0.08 0.21 0.38 0.51 0.58 0.33 0.20 0.17 0.14 0.15
0.00 0.00 0.01 0.00 0.01 0.04 0.06 0.02 0.00 0.01 0.01 0.00 0.00 0.00 0.00 0.00 0.00 0.00 0.00 0.01 0.01 0.05 0.02 0.01 0.02 0.04 0.03 0.01 0.02 0.03 0.03 0.04 0.05 0.09 0.11 0.15 0.26 0.32 0.49 0.50 0.34 0.22 0.14 0.10
0.01 0.03 0.05 0.04 0.07 0.04 0.00 0.00 0.00 0.00 0.01 0.00 0.00 0.00 0.00 0.00 0.00 0.00 0.00 0.00 0.01 0.01 0.02 0.02 0.03 0.04 0.01 0.00 0.01 0.07 0.07 0.11 0.10 0.13 0.20 0.20 0.19 0.26 0.40 0.37 0.33 0.33 0.25 0.12
0.06 0.06 0.06 0.03 0.01 0.00 0.00 0.00 0.01 0.00 0.00 0.00 0.00 0.00 0.00 0.00 0.00 0.00 0.00 0.00 0.00 0.00 0.01 0.00 0.00 0.00 0.00 0.00 0.01 0.06 0.19 0.15 0.13 0.18 0.28 0.38 0.30 0.22 0.34 0.43 0.34 0.22 0.22 0.26
0.00 0.02 0.02 0.00 0.00 0.00 0.01 0.01 0.01 0.00 0.00 0.00 0.00 0.00 0.01 0.00 0.01 0.01 0.01 0.01 0.00 0.01 0.01 0.01 0.03 0.03 0.02 0.01 0.04 0.15 0.31 0.36 0.27 0.24 0.30 0.36 0.35 0.25 0.28 0.32 0.31 0.30 0.24 0.17
0.00 0.01 0.02 0.01 0.01 0.00 0.00 0.00 0.00 0.01 0.00 0.00 0.01 0.01 0.02 0.04 0.04 0.04 0.03 0.01 0.00 0.01 0.02 0.04 0.06 0.08 0.09 0.14 0.24 0.27 0.30 0.36 0.31 0.21 0.19 0.23 0.25 0.26 0.24 0.22 0.22 0.27 0.21 0.19
0.01 0.01 0.01 0.00 0.00 0.01 0.01 0.00 0.00 0.01 0.02 0.03 0.05 0.06 0.07 0.07 0.05 0.03 0.02 0.01 0.01 0.04 0.03 0.04 0.13 0.18 0.17 0.20 0.22 0.26 0.30 0.29 0.32 0.29 0.19 0.20 0.22 0.25 0.26 0.25 0.22 0.24 0.25 0.31
0.00 0.00 0.01 0.01 0.02 0.02 0.03 0.05 0.07 0.08 0.09 0.09 0.07 0.04 0.04 0.03 0.02 0.01 0.01 0.01 0.05 0.08 0.06 0.02 0.10 0.21 0.20 0.19 0.21 0.23 0.29 0.30 0.31 0.36 0.28 0.22 0.22 0.20 0.24 0.26 0.24 0.22 0.22 0.30
0.04 0.05 0.06 0.07 0.08 0.13 0.12 0.11 0.08 0.04 0.03 0.02 0.01 0.00 0.00 0.00 0.00 0.01 0.01 0.02 0.12 0.08 0.05 0.04 0.06 0.13 0.21 0.25 0.25 0.25 0.33 0.35 0.32 0.30 0.28 0.24 0.19 0.15 0.16 0.22 0.20 0.20 0.21 0.21
0.10 0.11 0.08 0.05 0.03 0.02 0.03 0.02 0.01 0.01 0.00 0.01 0.01 0.01 0.01 0.02 0.04 0.04 0.04 0.06 0.07 0.03 0.03 0.05 0.05 0.08 0.14 0.22 0.30 0.34 0.39 0.42 0.39 0.36 0.32 0.26 0.22 0.18 0.15 0.16 0.18 0.19 0.20 0.19
0.06 0.03 0.02 0.00 0.00 0.00 0.00 0.00 0.00 0.01 0.01 0.02 0.04 0.05 0.07 0.08 0.05 0.05 0.03 0.03 0.01 0.00 0.00 0.04 0.06 0.09 0.10 0.15 0.19 0.26 0.30 0.31 0.33 0.36 0.39 0.39 0.35 0.29 0.23 0.19 0.17 0.16 0.17 0.18
0.03 0.02 0.01 0.01 0.00 0.00 0.00 0.02 0.02 0.03 0.03 0.06 0.08 0.08 0.07 0.06 0.03 0.02 0.01 0.00 0.00 0.00 0.00 0.04 0.11 0.13 0.13 0.11 0.13 0.17 0.21 0.25 0.27 0.27 0.28 0.31 0.35 0.33 0.32 0.29 0.25 0.22 0.18 0.17
0.02 0.01 0.01 0.00 0.00 0.01 0.02 0.03 0.02 0.04 0.06 0.09 0.09 0.05 0.02 0.01 0.00 0.00 0.00 0.00 0.00 0.00 0.00 0.01 0.03 0.06 0.09 0.08 0.08 0.11 0.13 0.17 0.21 0.24 0.24 0.28 0.30 0.31 0.31 0.30 0.30 0.27 0.22 0.19
0.00 0.00 0.00 0.01 0.02 0.03 0.03 0.02 0.02 0.02 0.01 0.02 0.02 0.01 0.00 0.00 0.01 0.01 0.01 0.01 0.00 0.00 0.00 0.00 0.02 0.04 0.06 0.07 0.07 0.08 0.09 0.10 0.15 0.18 0.19 0.21 0.22 0.25 0.26 0.26 0.25 0.26 0.23 0.20
0.03 0.04 0.04 0.03 0.04 0.04 0.04 0.03 0.02 0.02 0.01 0.00 0.00 0.00 0.01 0.01 0.01 0.01 0.01 0.01 0.01 0.01 0.01 0.01 0.02 0.03 0.04 0.06 0.07 0.07 0.07 0.07 0.10 0.11 0.13 0.14 0.16 0.18 0.20 0.22 0.23 0.25 0.24 0.22
0.03 0.02 0.01 0.00 0.01 0.02 0.03 0.03 0.02 0.01 0.00 0.01 0.01 0.01 0.01 0.01 0.01 0.01 0.01 0.01 0.02 0.02 0.02 0.02 0.03 0.04 0.04 0.06 0.06 0.07 0.08 0.07 0.09 0.08 0.07 0.07 0.09 0.11 0.13 0.16 0.17 0.19 0.22 0.22

GFSNGP_prec_precacc24_228.txt.gz
Total_Precipitation_Accumulation
0.00 0.00 0.01 0.05 0.09 0.11 0.19 0.16 0.34 0.15 0.03 0.01 0.01 0.01 0.00 0.00 0.00 0.00 0.00 0.00 0.04 0.16 0.04 0.02 0.03 0.05 0.15 0.13 0.08 0.18 0.31 0.25 0.31 0.33 0.09 0.01 0.01 0.02 0.02 0.04 0.04 0.07 0.13 0.16
0.02 0.00 0.00 0.01 0.01 0.01 0.01 0.01 0.02 0.01 0.02 0.02 0.01 0.00 0.00 0.00 0.00 0.00 0.01 0.04 0.11 0.12 0.12 0.17 0.27 0.39 0.40 0.21 0.28 0.23 0.17 0.22 0.27 0.04 0.01 0.02 0.04 0.12 0.11 0.12 0.10 0.09 0.12 0.16
0.14 0.01 0.00 0.01 0.00 0.00 0.00 0.00 0.01 0.04 0.04 0.00 0.00 0.00 0.00 0.00 0.00 0.06 0.25 0.36 0.38 0.55 0.49 0.33 0.41 0.49 0.62 0.61 0.49 0.45 0.37 0.26 0.10 0.02 0.02 0.05 0.08 0.16 0.22 0.22 0.22 0.23 0.20 0.18
0.22 0.07 0.10 0.01 0.00 0.00 0.00 0.01 0.01 0.01 0.00 0.00 0.00 0.00 0.00 0.05 0.46 0.79 0.70 0.50 0.36 0.22 0.09 0.10 0.26 0.25 0.46 0.77 0.74 0.59 0.37 0.18 0.06 0.02 0.05 0.10 0.12 0.15 0.21 0.27 0.31 0.33 0.39 0.32
0.21 0.09 0.02 0.00 0.00 0.00 0.00 0.01 0.00 0.00 0.00 0.00 0.00 0.00 0.00 0.10 0.54 0.54 0.28 0.13 0.11 0.09 0.05 0.07 0.25 0.27 0.46 0.44 0.24 0.11 0.03 0.01 0.03 0.04 0.07 0.09 0.10 0.13 0.16 0.24 0.33 0.36 0.36 0.36
0.20 0.11 0.02 0.00 0.01 0.01 0.02 0.04 0.00 0.00 0.00 0.00 0.03 0.08 0.01 0.03 0.17 0.13 0.06 0.06 0.04 0.03 0.02 0.04 0.09 0.14 0.20 0.11 0.03 0.00 0.00 0.01 0.04 0.03 0.08 0.10 0.11 0.12 0.16 0.22 0.29 0.32 0.31 0.29
0.17 0.28 0.13 0.08 0.04 0.03 0.09 0.05 0.00 0.00 0.00 0.02 0.08 0.16 0.09 0.05 0.05 0.05 0.04 0.03 0.02 0.01 0.00 0.00 0.00 0.00 0.00 0.00 0.00 0.00 0.00 0.00 0.04 0.06 0.08 0.09 0.11 0.15 0.16 0.21 0.27 0.34 0.35 0.38
0.09 0.24 0.12 0.03 0.01 0.00 0.00 0.00 0.00 0.00 0.00 0.03 0.03 0.04 0.06 0.09 0.13 0.09 0.05 0.02 0.01 0.00 0.00 0.00 0.01 0.00 0.00 0.00 0.00 0.00 0.00 0.00 0.01 0.06 0.08 0.08 0.11 0.18 0.19 0.19 0.20 0.28 0.37 0.43
0.01 0.00 0.00 0.00 0.00 0.00 0.00 0.00 0.00 0.00 0.00 0.06 0.07 0.11 0.18 0.12 0.03 0.02 0.00 0.00 0.00 0.00 0.00 0.00 0.00 0.00 0.00 0.00 0.00 0.00 0.00 0.00 0.00 0.05 0.13 0.09 0.12 0.19 0.22 0.20 0.17 0.22 0.22 0.23
0.01 0.00 0.00 0.00 0.00 0.00 0.00 0.00 0.00 0.01 0.07 0.15 0.20 0.15 0.04 0.00 0.00 0.00 0.00 0.00 0.00 0.00 0.01 0.02 0.02 0.01 0.00 0.00 0.00 0.00 0.00 0.00 0.00 0.02 0.09 0.13 0.15 0.17 0.17 0.17 0.18 0.19 0.19 0.22
0.00 0.00 0.00 0.00 0.00 0.00 0.00 0.00 0.02 0.16 0.16 0.09 0.02 0.00 0.00 0.00 0.00 0.00 0.00 0.00 0.00 0.00 0.01 0.03 0.05 0.04 0.01 0.00 0.00 0.00 0.00 0.00 0.00 0.01 0.02 0.08 0.18 0.25 0.25 0.21 0.19 0.16 0.16 0.13
0.00 0.00 0.00 0.00 0.00 0.00 0.00 0.01 0.04 0.02 0.00 0.00 0.00 0.00 0.00 0.01 0.00 0.00 0.00 0.00 0.00 0.00 0.01 0.00 0.01 0.01 0.00 0.01 0.01 0.01 0.00 0.00 0.01 0.01 0.03 0.05 0.09 0.26 0.38 0.27 0.20 0.17 0.14 0.15
0.00 0.00 0.00 0.00 0.01 0.01 0.02 0.01 0.00 0.00 0.00 0.00 0.00 0.00 0.01 0.00 0.01 0.01 0.01 0.01 0.01 0.01 0.01 0.01 0.00 0.01 0.00 0.00 0.01 0.01 0.01 0.01 0.01 0.03 0.04 0.07 0.07 0.12 0.31 0.32 0.29 0.22 0.14 0.10
0.00 0.00 0.00 0.02 0.03 0.03 0.00 0.00 0.00 0.00 0.01 0.02 0.03 0.02 0.01 0.02 0.03 0.03 0.02 0.02 0.01 0.01 0.00 0.01 0.00 0.00 0.00 0.00 0.01 0.01 0.01 0.05 0.03 0.02 0.04 0.09 0.10 0.12 0.26 0.29 0.26 0.27 0.24 0.12
0.00 0.00 0.01 0.01 0.00 0.00 0.00 0.00 0.02 0.02 0.02 0.02 0.02 0.02 0.02 0.02 0.02 0.02 0.03 0.04 0.05 0.04 0.03 0.05 0.05 0.03 0.02 0.01 0.01 0.01 0.01 0.01 0.02 0.05 0.11 0.20 0.17 0.15 0.25 0.32 0.31 0.20 0.20 0.24
0.00 0.00 0.00 0.00 0.00 0.01 0.02 0.03 0.04 0.03 0.03 0.03 0.03 0.03 0.02 0.02 0.04 0.06 0.10 0.14 0.16 0.15 0.12 0.11 0.08 0.05 0.05 0.04 0.02 0.04 0.08 0.14 0.14 0.14 0.17 0.20 0.18 0.15 0.21 0.26 0.29 0.29 0.23 0.16
0.00 0.02 0.02 0.02 0.01 0.01 0.02 0.03 0.04 0.07 0.06 0.07 0.08 0.06 0.06 0.09 0.10 0.11 0.13 0.13 0.11 0.08 0.04 0.04 0.03 0.02 0.03 0.05 0.06 0.08 0.10 0.11 0.13 0.12 0.11 0.13 0.14 0.15 0.17 0.19 0.20 0.27 0.21 0.20
0.01 0.01 0.01 0.02 0.03 0.05 0.06 0.07 0.07 0.05 0.06 0.07 0.07 0.07 0.09 0.11 0.11 0.10 0.08 0.07 0.05 0.04 0.02 0.04 0.07 0.06 0.07 0.10 0.09 0.07 0.08 0.11 0.15 0.16 0.12 0.13 0.14 0.18 0.22 0.23 0.22 0.24 0.25 0.31
0.00 0.01 0.03 0.08 0.11 0.10 0.10 0.11 0.11 0.09 0.10 0.10 0.08 0.05 0.05 0.04 0.04 0.02 0.01 0.02 0.05 0.06 0.14 0.07 0.03 0.03 0.03 0.06 0.06 0.06 0.09 0.16 0.22 0.29 0.26 0.20 0.20 0.19 0.23 0.26 0.23 0.22 0.22 0.30
0.05 0.07 0.10 0.09 0.11 0.16 0.15 0.13 0.09 0.05 0.03 0.03 0.02 0.02 0.01 0.01 0.02 0.02 0.02 0.03 0.13 0.09 0.05 0.04 0.01 0.02 0.02 0.05 0.09 0.12 0.19 0.21 0.25 0.26 0.28 0.23 0.18 0.15 0.16 0.21 0.20 0.19 0.22 0.23
0.09 0.10 0.08 0.05 0.03 0.02 0.03 0.02 0.02 0.01 0.01 0.01 0.03 0.02 0.03 0.04 0.07 0.06 0.06 0.08 0.14 0.10 0.03 0.02 0.01 0.01 0.02 0.04 0.07 0.12 0.20 0.26 0.26 0.27 0.28 0.25 0.22 0.18 0.15 0.16 0.18 0.19 0.21 0.21
0.05 0.03 0.02 0.00 0.00 0.00 0.00 0.00 0.01 0.01 0.02 0.03 0.04 0.06 0.08 0.09 0.06 0.05 0.04 0.04 0.02 0.01 0.00 0.00 0.00 0.01 0.01 0.03 0.05 0.10 0.13 0.17 0.22 0.26 0.29 0.33 0.33 0.29 0.23 0.19 0.17 0.17 0.17 0.19
0.03 0.02 0.01 0.01 0.00 0.00 0.00 0.02 0.02 0.04 0.04 0.07 0.09 0.08 0.07 0.06 0.03 0.01 0.01 0.00 0.00 0.00 0.00 0.00 0.01 0.01 0.01 0.02 0.05 0.10 0.13 0.16 0.20 0.22 0.23 0.28 0.32 0.32 0.32 0.29 0.26 0.22 0.19 0.18
0.02 0.01 0.01 0.00 0.00 0.01 0.02 0.03 0.02 0.04 0.06 0.09 0.09 0.05 0.01 0.01 0.01 0.00 0.00 0.00 0.00 0.00 0.01 0.01 0.01 0.01 0.02 0.02 0.04 0.07 0.11 0.15 0.18 0.21 0.22 0.25 0.28 0.31 0.31 0.30 0.31 0.27 0.23 0.20
0.00 0.00 0.00 0.01 0.02 0.03 0.03 0.02 0.02 0.02 0.01 0.02 0.02 0.01 0.00 0.00 0.01 0.01 0.01 0.01 0.01 0.01 0.02 0.01 0.01 0.02 0.03 0.04 0.05 0.06 0.08 0.10 0.14 0.17 0.18 0.20 0.21 0.24 0.26 0.26 0.26 0.27 0.24 0.21
0.02 0.04 0.04 0.03 0.03 0.03 0.03 0.02 0.02 0.02 0.01 0.00 0.00 0.00 0.01 0.01 0.01 0.01 0.01 0.02 0.02 0.02 0.02 0.03 0.03 0.03 0.04 0.05 0.05 0.05 0.06 0.07 0.10 0.12 0.14 0.16 0.18 0.19 0.21 0.23 0.24 0.27 0.26 0.23
0.03 0.02 0.01 0.00 0.00 0.02 0.03 0.03 0.02 0.01 0.00 0.02 0.01 0.01 0.01 0.01 0.02 0.02 0.02 0.02 0.02 0.03 0.03 0.03 0.03 0.03 0.04 0.04 0.04 0.04 0.05 0.06 0.09 0.10 0.09 0.10 0.11 0.13 0.15 0.18 0.19 0.20 0.23 0.23

GFSNGP_prec_precacc24_231.txt.gz
Total_Precipitation_Accumulation
0.00 0.00 0.01 0.05 0.09 0.12 0.21 0.18 0.35 0.15 0.03 0.00 0.00 0.03 0.07 0.04 0.00 0.00 0.00 0.00 0.00 0.01 0.02 0.02 0.02 0.05 0.15 0.13 0.08 0.13 0.23 0.23 0.30 0.33 0.09 0.01 0.00 0.00 0.00 0.00 0.00 0.01 0.05 0.07
0.02 0.00 0.00 0.01 0.01 0.01 0.01 0.01 0.03 0.01 0.00 0.00 0.00 0.00 0.00 0.00 0.00 0.00 0.00 0.03 0.08 0.11 0.11 0.17 0.27 0.39 0.40 0.21 0.27 0.23 0.17 0.22 0.27 0.04 0.01 0.00 0.00 0.00 0.00 0.01 0.01 0.02 0.03 0.07
0.14 0.01 0.01 0.02 0.00 0.00 0.00 0.00 0.00 0.01 0.01 0.00 0.00 0.00 0.00 0.00 0.00 0.02 0.19 0.28 0.33 0.51 0.46 0.30 0.41 0.49 0.62 0.61 0.49 0.45 0.37 0.26 0.10 0.02 0.00 0.00 0.01 0.02 0.03 0.03 0.05 0.05 0.06 0.07
0.25 0.09 0.13 0.01 0.00 0.00 0.00 0.00 0.00 0.01 0.01 0.00 0.00 0.00 0.00 0.00 0.06 0.34 0.55 0.46 0.31 0.16 0.07 0.10 0.26 0.25 0.46 0.77 0.74 0.59 0.37 0.18 0.05 0.00 0.00 0.02 0.03 0.05 0.08 0.09 0.12 0.16 0.17 0.16
0.32 0.16 0.03 0.00 0.00 0.00 0.00 0.00 0.00 0.00 0.00 0.00 0.00 0.00 0.00 0.01 0.22 0.35 0.21 0.11 0.09 0.07 0.05 0.07 0.25 0.27 0.46 0.44 0.24 0.11 0.03 0.00 0.00 0.00 0.01 0.02 0.02 0.03 0.04 0.08 0.12 0.16 0.17 0.21
0.34 0.24 0.05 0.00 0.00 0.00 0.02 0.04 0.00 0.00 0.00 0.00 0.00 0.00 0.00 0.00 0.08 0.09 0.06 0.05 0.03 0.02 0.02 0.03 0.09 0.14 0.20 0.11 0.03 0.00 0.00 0.00 0.00 0.00 0.02 0.04 0.04 0.04 0.06 0.09 0.12 0.15 0.16 0.17
0.22 0.40 0.13 0.05 0.04 0.03 0.07 0.04 0.00 0.00 0.00 0.00 0.00 0.01 0.01 0.02 0.02 0.04 0.04 0.03 0.02 0.01 0.00 0.00 0.00 0.00 0.00 0.00 0.00 0.00 0.00 0.00 0.00 0.00 0.02 0.05 0.05 0.05 0.05 0.08 0.13 0.19 0.22 0.21
0.12 0.32 0.14 0.02 0.01 0.00 0.00 0.00 0.00 0.00 0.00 0.00 0.00 0.01 0.03 0.08 0.13 0.09 0.05 0.02 0.01 0.00 0.00 0.00 0.00 0.00 0.00 0.00 0.00 0.00 0.00 0.00 0.00 0.00 0.02 0.05 0.06 0.08 0.07 0.07 0.09 0.16 0.21 0.29
0.01 0.02 0.00 0.00 0.00 0.00 0.00 0.00 0.00 0.00 0.00 0.01 0.03 0.09 0.18 0.12 0.03 0.02 0.00 0.00 0.00 0.00 0.00 0.00 0.00 0.00 0.00 0.00 0.00 0.00 0.00 0.00 0.00 0.00 0.00 0.03 0.07 0.11 0.11 0.10 0.09 0.12 0.15 0.18
0.00 0.00 0.00 0.00 0.00 0.00 0.00 0.00 0.00 0.01 0.05 0.12 0.19 0.15 0.04 0.00 0.00 0.00 0.00 0.00 0.00 0.00 0.00 0.00 0.00 0.00 0.00 0.00 0.00 0.00 0.00 0.00 0.00 0.01 0.02 0.01 0.07 0.12 0.12 0.11 0.12 0.11 0.14 0.19
0.00 0.00 0.00 0.00 0.00 0.00 0.00 0.00 0.02 0.15 0.15 0.09 0.02 0.00 0.00 0.00 0.00 0.00 0.00 0.00 0.00 0.00 0.00 0.00 0.00 0.01 0.00 0.00 0.00 0.00 0.00 0.00 0.00 0.00 0.01 0.02 0.05 0.15 0.19 0.15 0.14 0.11 0.12 0.12
0.00 0.00 0.00 0.00 0.00 0.00 0.00 0.01 0.03 0.02 0.00 0.00 0.00 0.00 0.00 0.00 0.00 0.00 0.01 0.02 0.05 0.08 0.07 0.03 0.01 0.01 0.00 0.00 0.01 0.01 0.00 0.00 0.01 0.01 0.01 0.02 0.04 0.15 0.27 0.22 0.17 0.15 0.14 0.15
0.00 0.00 0.00 0.00 0.00 0.00 0.00 0.00 0.00 0.00 0.00 0.00 0.00 0.01 0.01 0.01 0.03 0.04 0.08 0.10 0.08 0.07 0.06 0.04 0.05 0.05 0.02 0.01 0.01 0.01 0.01 0.01 0.01 0.02 0.02 0.03 0.04 0.08 0.18 0.25 0.27 0.22 0.14 0.10
0.00 0.00 0.00 0.00 0.01 0.00 0.00 0.00 0.00 0.00 0.01 0.02 0.03 0.04 0.03 0.04 0.04 0.04 0.03 0.02 0.02 0.03 0.04 0.10 0.17 0.17 0.14 0.10 0.05 0.02 0.01 0.05 0.03 0.02 0.04 0.05 0.05 0.08 0.15 0.18 0.20 0.25 0.23 0.12
0.00 0.00 0.00 0.00 0.00 0.00 0.00 0.00 0.02 0.02 0.03 0.03 0.04 0.05 0.04 0.03 0.02 0.02 0.03 0.04 0.05 0.08 0.13 0.16 0.15 0.15 0.16 0.17 0.17 0.11 0.06 0.02 0.02 0.05 0.09 0.15 0.11 0.10 0.14 0.18 0.18 0.15 0.16 0.20
0.00 0.00 0.00 0.00 0.00 0.01 0.02 0.03 0.04 0.03 0.04 0.04 0.05 0.06 0.05 0.03 0.04 0.06 0.10 0.14 0.16 0.15 0.12 0.13 0.09 0.07 0.08 0.09 0.08 0.07 0.06 0.07 0.07 0.11 0.14 0.14 0.12 0.11 0.14 0.16 0.16 0.19 0.17 0.13
0.00 0.02 0.02 0.02 0.01 0.01 0.02 0.03 0.05 0.07 0.07 0.08 0.09 0.06 0.06 0.08 0.10 0.11 0.13 0.12 0.11 0.07 0.04 0.04 0.04 0.03 0.04 0.06 0.08 0.08 0.07 0.06 0.05 0.06 0.07 0.08 0.09 0.10 0.12 0.14 0.13 0.16 0.16 0.17
0.01 0.01 0.01 0.02 0.03 0.05 0.06 0.07 0.07 0.05 0.07 0.07 0.07 0.07 0.09 0.10 0.11 0.10 0.08 0.07 0.05 0.04 0.04 0.07 0.07 0.06 0.06 0.08 0.09 0.08 0.06 0.04 0.05 0.07 0.06 0.07 0.09 0.11 0.13 0.14 0.14 0.17 0.19 0.27
0.00 0.01 0.03 0.08 0.11 0.10 0.10 0.11 0.11 0.09 0.10 0.10 0.08 0.05 0.05 0.04 0.03 0.02 0.01 0.02 0.05 0.06 0.15 0.09 0.03 0.03 0.02 0.03 0.03 0.03 0.04 0.07 0.11 0.13 0.13 0.12 0.12 0.10 0.11 0.15 0.14 0.16 0.19 0.27
0.05 0.07 0.10 0.09 0.11 0.16 0.15 0.13 0.09 0.05 0.03 0.03 0.02 0.02 0.01 0.01 0.02 0.02 0.02 0.03 0.13 0.09 0.05 0.05 0.01 0.02 0.02 0.03 0.06 0.05 0.07 0.10 0.14 0.16 0.17 0.14 0.12 0.09 0.09 0.13 0.13 0.15 0.20 0.21
0.09 0.10 0.08 0.05 0.03 0.02 0.03 0.02 0.02 0.01 0.01 0.01 0.03 0.02 0.03 0.04 0.07 0.06 0.06 0.08 0.14 0.10 0.03 0.01 0.01 0.00 0.01 0.01 0.02 0.03 0.06 0.11 0.15 0.16 0.18 0.18 0.19 0.15 0.12 0.13 0.15 0.17 0.20 0.20
0.05 0.03 0.02 0.00 0.00 0.00 0.00 0.00 0.01 0.01 0.02 0.03 0.04 0.06 0.08 0.09 0.06 0.05 0.04 0.04 0.02 0.01 0.00 0.00 0.00 0.00 0.00 0.00 0.01 0.03 0.05 0.08 0.11 0.15 0.19 0.23 0.24 0.23 0.20 0.18 0.16 0.16 0.17 0.19
0.03 0.02 0.01 0.01 0.00 0.00 0.00 0.02 0.01 0.04 0.04 0.07 0.09 0.08 0.07 0.06 0.03 0.01 0.01 0.00 0.00 0.00 0.00 0.00 0.00 0.01 0.00 0.01 0.02 0.03 0.06 0.09 0.11 0.13 0.16 0.21 0.25 0.27 0.27 0.25 0.23 0.22 0.19 0.18
0.02 0.01 0.01 0.00 0.00 0.00 0.02 0.02 0.02 0.04 0.06 0.09 0.09 0.05 0.01 0.01 0.01 0.00 0.01 0.01 0.00 0.00 0.01 0.01 0.01 0.01 0.02 0.03 0.03 0.03 0.06 0.09 0.12 0.15 0.16 0.18 0.22 0.25 0.25 0.26 0.27 0.25 0.23 0.19
0.00 0.00 0.00 0.01 0.02 0.03 0.03 0.02 0.02 0.02 0.01 0.02 0.02 0.01 0.00 0.01 0.02 0.01 0.01 0.02 0.01 0.01 0.02 0.01 0.02 0.02 0.03 0.04 0.05 0.05 0.05 0.06 0.09 0.12 0.14 0.15 0.16 0.18 0.21 0.22 0.24 0.25 0.23 0.20
0.02 0.04 0.04 0.03 0.03 0.03 0.03 0.02 0.02 0.02 0.01 0.01 0.00 0.00 0.01 0.01 0.01 0.01 0.01 0.02 0.02 0.02 0.02 0.03 0.03 0.03 0.04 0.04 0.04 0.04 0.04 0.04 0.07 0.09 0.13 0.14 0.15 0.16 0.18 0.20 0.23 0.26 0.25 0.23
0.03 0.01 0.00 0.00 0.00 0.01 0.01 0.03 0.02 0.01 0.01 0.02 0.01 0.01 0.02 0.01 0.02 0.02 0.02 0.02 0.02 0.03 0.03 0.03 0.03 0.03 0.04 0.04 0.03 0.03 0.04 0.05 0.07 0.09 0.10 0.10 0.11 0.13 0.15 0.18 0.19 0.20 0.23 0.23

GFSNGP_prec_precacc24_237.txt.gz
Total_Precipitation_Accumulation
0.05 0.00 0.01 0.05 0.09 0.11 0.17 0.12 0.28 0.08 0.02 0.00 0.00 0.12 0.21 0.16 0.13 0.12 0.11 0.07 0.02 0.01 0.00 0.01 0.01 0.05 0.15 0.13 0.08 0.13 0.23 0.23 0.30 0.33 0.09 0.01 0.00 0.00 0.00 0.00 0.00 0.00 0.00 0.00
0.02 0.00 0.00 0.01 0.01 0.01 0.01 0.01 0.02 0.01 0.00 0.00 0.00 0.01 0.05 0.06 0.05 0.07 0.04 0.01 0.00 0.01 0.06 0.14 0.22 0.38 0.40 0.21 0.27 0.23 0.17 0.22 0.27 0.04 0.01 0.00 0.00 0.00 0.00 0.00 0.00 0.00 0.00 0.00
0.09 0.01 0.01 0.02 0.00 0.00 0.00 0.00 0.00 0.01 0.00 0.00 0.00 0.00 0.00 0.00 0.00 0.00 0.00 0.00 0.00 0.06 0.13 0.17 0.33 0.46 0.62 0.61 0.49 0.45 0.37 0.26 0.10 0.02 0.00 0.00 0.00 0.00 0.00 0.00 0.00 0.01 0.01 0.01
0.22 0.10 0.14 0.01 0.00 0.00 0.00 0.00 0.00 0.00 0.00 0.00 0.00 0.00 0.00 0.00 0.00 0.00 0.00 0.01 0.02 0.04 0.05 0.09 0.25 0.24 0.46 0.77 0.74 0.59 0.37 0.18 0.05 0.00 0.00 0.00 0.00 0.00 0.01 0.00 0.00 0.00 0.01 0.01
0.40 0.22 0.04 0.00 0.00 0.00 0.00 0.00 0.00 0.00 0.00 0.00 0.00 0.00 0.00 0.00 0.00 0.00 0.02 0.02 0.02 0.03 0.03 0.06 0.25 0.27 0.46 0.44 0.24 0.11 0.03 0.00 0.00 0.00 0.00 0.00 0.00 0.00 0.00 0.00 0.00 0.01 0.02 0.03
0.42 0.31 0.07 0.00 0.00 0.00 0.01 0.02 0.00 0.00 0.00 0.00 0.00 0.00 0.00 0.00 0.00 0.01 0.01 0.02 0.02 0.02 0.01 0.03 0.09 0.13 0.20 0.11 0.03 0.00 0.00 0.00 0.00 0.00 0.00 0.00 0.00 0.00 0.01 0.01 0.01 0.01 0.01 0.04
0.23 0.47 0.14 0.00 0.00 0.00 0.02 0.02 0.00 0.00 0.00 0.00 0.00 0.00 0.00 0.00 0.01 0.03 0.03 0.03 0.02 0.01 0.00 0.00 0.00 0.00 0.00 0.00 0.00 0.00 0.00 0.00 0.00 0.00 0.00 0.00 0.00 0.00 0.01 0.01 0.01 0.01 0.02 0.03
0.19 0.45 0.16 0.00 0.00 0.00 0.00 0.00 0.00 0.00 0.00 0.00 0.00 0.00 0.01 0.07 0.12 0.09 0.05 0.02 0.01 0.00 0.00 0.00 0.00 0.00 0.00 0.00 0.00 0.00 0.00 0.00 0.00 0.00 0.00 0.00 0.00 0.00 0.01 0.01 0.01 0.01 0.02 0.03
0.13 0.08 0.00 0.00 0.00 0.00 0.00 0.00 0.00 0.00 0.00 0.01 0.02 0.05 0.16 0.11 0.03 0.02 0.00 0.00 0.00 0.00 0.00 0.01 0.02 0.04 0.06 0.04 0.01 0.00 0.01 0.01 0.01 0.01 0.01 0.00 0.00 0.00 0.01 0.02 0.02 0.02 0.03 0.04
0.11 0.08 0.01 0.01 0.01 0.00 0.00 0.00 0.00 0.00 0.01 0.04 0.07 0.09 0.04 0.00 0.00 0.00 0.00 0.00 0.00 0.01 0.02 0.02 0.02 0.02 0.03 0.05 0.07 0.07 0.07 0.05 0.04 0.04 0.04 0.01 0.00 0.01 0.02 0.04 0.04 0.02 0.03 0.05
0.15 0.05 0.02 0.01 0.00 0.00 0.00 0.00 0.00 0.00 0.01 0.01 0.01 0.00 0.00 0.00 0.00 0.00 0.00 0.00 0.02 0.03 0.03 0.04 0.08 0.10 0.11 0.12 0.10 0.07 0.05 0.03 0.03 0.03 0.03 0.02 0.01 0.01 0.03 0.05 0.08 0.03 0.02 0.04
0.05 0.01 0.02 0.01 0.00 0.00 0.00 0.00 0.00 0.00 0.00 0.00 0.00 0.00 0.00 0.01 0.01 0.01 0.02 0.03 0.06 0.09 0.10 0.11 0.07 0.03 0.02 0.03 0.03 0.03 0.03 0.03 0.05 0.07 0.07 0.06 0.05 0.04 0.06 0.08 0.09 0.06 0.04 0.05
0.00 0.00 0.00 0.00 0.00 0.00 0.00 0.00 0.00 0.00 0.00 0.00 0.00 0.01 0.01 0.02 0.03 0.06 0.09 0.11 0.09 0.06 0.06 0.04 0.05 0.09 0.11 0.15 0.14 0.11 0.12 0.13 0.15 0.17 0.17 0.16 0.14 0.14 0.13 0.12 0.12 0.12 0.07 0.04
0.00 0.00 0.00 0.00 0.00 0.00 0.00 0.00 0.00 0.00 0.01 0.02 0.03 0.04 0.04 0.04 0.04 0.03 0.03 0.02 0.02 0.03 0.04 0.10 0.17 0.18 0.18 0.19 0.22 0.20 0.18 0.19 0.21 0.24 0.27 0.25 0.23 0.19 0.17 0.14 0.15 0.17 0.15 0.08
0.00 0.00 0.00 0.00 0.00 0.00 0.00 0.00 0.02 0.02 0.03 0.03 0.04 0.05 0.04 0.03 0.02 0.02 0.03 0.04 0.05 0.08 0.13 0.16 0.15 0.15 0.17 0.18 0.19 0.17 0.17 0.18 0.18 0.16 0.14 0.16 0.14 0.14 0.13 0.13 0.14 0.14 0.13 0.14
0.00 0.00 0.00 0.00 0.00 0.01 0.02 0.03 0.04 0.03 0.04 0.04 0.05 0.06 0.05 0.03 0.04 0.06 0.10 0.14 0.16 0.14 0.12 0.13 0.10 0.07 0.08 0.09 0.09 0.10 0.11 0.11 0.11 0.10 0.08 0.08 0.09 0.11 0.12 0.13 0.13 0.11 0.12 0.11
0.00 0.02 0.02 0.02 0.01 0.01 0.02 0.03 0.05 0.07 0.07 0.08 0.09 0.06 0.06 0.08 0.10 0.11 0.13 0.12 0.11 0.07 0.04 0.05 0.04 0.02 0.03 0.05 0.07 0.08 0.07 0.06 0.06 0.04 0.06 0.08 0.09 0.09 0.12 0.12 0.09 0.10 0.09 0.11
0.01 0.01 0.01 0.02 0.03 0.05 0.06 0.07 0.07 0.05 0.07 0.07 0.07 0.07 0.09 0.10 0.11 0.10 0.08 0.07 0.05 0.03 0.04 0.07 0.08 0.05 0.06 0.07 0.09 0.07 0.05 0.02 0.03 0.06 0.05 0.03 0.04 0.05 0.05 0.06 0.05 0.06 0.07 0.13
0.00 0.01 0.03 0.08 0.11 0.10 0.10 0.11 0.11 0.09 0.10 0.10 0.08 0.05 0.05 0.04 0.03 0.02 0.01 0.02 0.03 0.07 0.15 0.09 0.02 0.02 0.02 0.03 0.02 0.01 0.02 0.03 0.04 0.02 0.02 0.02 0.02 0.02 0.04 0.05 0.05 0.06 0.06 0.11
0.04 0.07 0.10 0.09 0.10 0.14 0.14 0.12 0.09 0.05 0.03 0.03 0.02 0.02 0.01 0.01 0.02 0.02 0.02 0.03 0.12 0.10 0.05 0.04 0.01 0.01 0.02 0.02 0.04 0.02 0.02 0.03 0.03 0.02 0.02 0.02 0.03 0.02 0.02 0.04 0.04 0.04 0.06 0.09
0.09 0.10 0.08 0.05 0.02 0.02 0.03 0.02 0.02 0.01 0.01 0.01 0.03 0.02 0.03 0.04 0.07 0.06 0.05 0.08 0.15 0.10 0.03 0.01 0.00 0.01 0.01 0.01 0.01 0.00 0.01 0.02 0.03 0.04 0.05 0.05 0.04 0.03 0.03 0.04 0.06 0.05 0.06 0.08
0.05 0.03 0.02 0.00 0.00 0.00 0.00 0.00 0.01 0.01 0.02 0.03 0.03 0.04 0.06 0.08 0.05 0.05 0.05 0.04 0.02 0.01 0.00 0.00 0.00 0.00 0.00 0.00 0.00 0.01 0.01 0.02 0.03 0.04 0.06 0.07 0.08 0.07 0.07 0.07 0.06 0.06 0.06 0.08
0.03 0.02 0.01 0.01 0.00 0.00 0.00 0.02 0.01 0.03 0.03 0.03 0.05 0.06 0.05 0.05 0.02 0.02 0.02 0.00 0.00 0.00 0.00 0.00 0.00 0.00 0.00 0.01 0.01 0.02 0.03 0.03 0.03 0.04 0.05 0.08 0.11 0.13 0.13 0.13 0.12 0.12 0.10 0.09
0.02 0.01 0.01 0.00 0.00 0.00 0.02 0.02 0.01 0.03 0.04 0.06 0.05 0.03 0.01 0.01 0.01 0.00 0.01 0.01 0.00 0.00 0.01 0.01 0.01 0.01 0.01 0.03 0.03 0.04 0.04 0.04 0.04 0.05 0.05 0.08 0.10 0.13 0.14 0.16 0.16 0.15 0.14 0.12
0.00 0.00 0.00 0.00 0.01 0.02 0.02 0.01 0.01 0.01 0.00 0.00 0.00 0.01 0.00 0.01 0.02 0.01 0.01 0.02 0.01 0.01 0.02 0.01 0.02 0.02 0.03 0.04 0.05 0.05 0.05 0.05 0.04 0.05 0.06 0.06 0.07 0.09 0.12 0.15 0.16 0.19 0.19 0.17
0.00 0.00 0.00 0.00 0.00 0.00 0.01 0.00 0.00 0.00 0.00 0.00 0.00 0.00 0.01 0.01 0.01 0.01 0.01 0.02 0.02 0.02 0.02 0.03 0.03 0.03 0.04 0.04 0.05 0.04 0.04 0.04 0.05 0.05 0.06 0.06 0.07 0.08 0.10 0.14 0.17 0.18 0.20 0.19
0.00 0.00 0.00 0.00 0.00 0.00 0.00 0.00 0.00 0.00 0.01 0.02 0.01 0.01 0.02 0.01 0.02 0.02 0.02 0.02 0.02 0.03 0.03 0.03 0.03 0.04 0.04 0.04 0.04 0.04 0.04 0.06 0.06 0.07 0.06 0.06 0.06 0.07 0.09 0.11 0.13 0.14 0.17 0.17

GFSNGP_prec_precacc24_243.txt.gz
Total_Precipitation_Accumulation
0.10 0.09 0.11 0.11 0.06 0.04 0.07 0.05 0.10 0.03 0.00 0.00 0.00 0.12 0.21 0.16 0.13 0.12 0.13 0.11 0.06 0.02 0.01 0.04 0.06 0.03 0.08 0.09 0.04 0.08 0.17 0.21 0.30 0.33 0.09 0.01 0.00 0.00 0.00 0.00 0.00 0.00 0.00 0.00
0.02 0.00 0.01 0.02 0.00 0.00 0.01 0.01 0.01 0.01 0.00 0.00 0.00 0.01 0.05 0.06 0.05 0.07 0.06 0.02 0.00 0.00 0.00 0.00 0.00 0.05 0.26 0.19 0.25 0.19 0.14 0.21 0.27 0.04 0.01 0.00 0.00 0.00 0.00 0.00 0.00 0.00 0.00 0.00
0.08 0.01 0.01 0.02 0.00 0.00 0.00 0.00 0.00 0.01 0.00 0.00 0.00 0.00 0.00 0.00 0.00 0.00 0.00 0.00 0.00 0.01 0.00 0.00 0.01 0.09 0.29 0.47 0.47 0.41 0.36 0.26 0.10 0.02 0.00 0.00 0.00 0.00 0.00 0.00 0.00 0.00 0.00 0.00
0.20 0.10 0.16 0.01 0.00 0.00 0.00 0.00 0.00 0.00 0.00 0.00 0.00 0.00 0.00 0.00 0.00 0.00 0.00 0.00 0.01 0.01 0.01 0.01 0.02 0.09 0.27 0.60 0.68 0.57 0.37 0.18 0.05 0.00 0.00 0.00 0.00 0.00 0.00 0.00 0.00 0.00 0.00 0.00
0.39 0.24 0.05 0.00 0.00 0.00 0.00 0.00 0.00 0.00 0.00 0.00 0.00 0.00 0.00 0.00 0.00 0.00 0.01 0.01 0.01 0.01 0.01 0.01 0.01 0.06 0.20 0.34 0.24 0.11 0.03 0.00 0.00 0.00 0.00 0.00 0.00 0.01 0.01 0.02 0.02 0.01 0.01 0.00
0.43 0.38 0.09 0.00 0.00 0.00 0.00 0.00 0.00 0.00 0.00 0.00 0.00 0.00 0.00 0.00 0.00 0.00 0.00 0.01 0.01 0.00 0.00 0.00 0.00 0.01 0.02 0.05 0.03 0.00 0.00 0.00 0.00 0.01 0.03 0.03 0.02 0.02 0.01 0.01 0.01 0.00 0.00 0.00
0.26 0.56 0.17 0.00 0.00 0.00 0.04 0.03 0.00 0.00 0.00 0.00 0.00 0.00 0.00 0.00 0.00 0.00 0.00 0.01 0.00 0.00 0.00 0.00 0.00 0.00 0.00 0.00 0.00 0.00 0.01 0.02 0.02 0.01 0.01 0.00 0.00 0.00 0.00 0.01 0.01 0.01 0.01 0.01
0.21 0.52 0.20 0.00 0.00 0.00 0.01 0.00 0.00 0.00 0.00 0.00 0.00 0.00 0.00 0.00 0.00 0.00 0.00 0.00 0.00 0.00 0.00 0.00 0.00 0.00 0.01 0.02 0.03 0.02 0.02 0.01 0.00 0.00 0.00 0.00 0.00 0.00 0.01 0.01 0.03 0.03 0.03 0.03
0.17 0.13 0.01 0.02 0.02 0.02 0.00 0.00 0.00 0.00 0.01 0.00 0.00 0.00 0.00 0.00 0.00 0.00 0.00 0.00 0.00 0.00 0.00 0.01 0.02 0.05 0.07 0.05 0.02 0.01 0.01 0.01 0.01 0.01 0.01 0.02 0.03 0.04 0.05 0.07 0.09 0.09 0.09 0.08
0.19 0.16 0.07 0.08 0.05 0.01 0.01 0.01 0.02 0.02 0.01 0.00 0.00 0.00 0.00 0.00 0.00 0.00 0.00 0.00 0.00 0.01 0.02 0.02 0.02 0.02 0.03 0.06 0.07 0.08 0.07 0.05 0.03 0.04 0.04 0.05 0.07 0.07 0.09 0.11 0.13 0.14 0.15 0.14
0.31 0.15 0.15 0.08 0.01 0.01 0.01 0.01 0.00 0.00 0.00 0.00 0.00 0.00 0.00 0.00 0.00 0.00 0.00 0.00 0.02 0.03 0.03 0.04 0.08 0.10 0.11 0.12 0.10 0.07 0.04 0.03 0.03 0.03 0.03 0.03 0.04 0.05 0.10 0.13 0.19 0.25 0.24 0.22
0.16 0.03 0.06 0.05 0.01 0.00 0.00 0.00 0.00 0.00 0.00 0.00 0.00 0.00 0.00 0.01 0.01 0.01 0.02 0.03 0.06 0.09 0.10 0.10 0.07 0.03 0.02 0.03 0.03 0.03 0.03 0.03 0.05 0.08 0.09 0.12 0.15 0.16 0.17 0.22 0.28 0.31 0.30 0.28
0.01 0.01 0.03 0.04 0.01 0.00 0.00 0.00 0.00 0.00 0.00 0.00 0.00 0.01 0.01 0.02 0.03 0.06 0.09 0.11 0.09 0.06 0.06 0.04 0.05 0.09 0.11 0.15 0.14 0.11 0.11 0.12 0.15 0.18 0.20 0.22 0.24 0.25 0.23 0.17 0.16 0.17 0.18 0.18
0.00 0.01 0.05 0.03 0.02 0.00 0.00 0.00 0.00 0.00 0.01 0.02 0.03 0.04 0.04 0.04 0.04 0.03 0.03 0.02 0.02 0.03 0.04 0.10 0.17 0.18 0.18 0.19 0.21 0.19 0.17 0.17 0.21 0.24 0.27 0.26 0.24 0.22 0.22 0.19 0.16 0.13 0.13 0.18
0.00 0.00 0.00 0.02 0.01 0.00 0.00 0.00 0.02 0.02 0.03 0.03 0.04 0.05 0.04 0.03 0.02 0.02 0.03 0.04 0.05 0.08 0.13 0.16 0.15 0.15 0.17 0.18 0.19 0.17 0.17 0.18 0.18 0.15 0.13 0.15 0.14 0.14 0.13 0.15 0.16 0.17 0.16 0.18
0.00 0.00 0.00 0.00 0.00 0.01 0.02 0.03 0.04 0.03 0.04 0.04 0.05 0.06 0.05 0.03 0.04 0.06 0.10 0.14 0.16 0.14 0.12 0.13 0.10 0.07 0.08 0.09 0.08 0.10 0.11 0.10 0.10 0.09 0.07 0.07 0.09 0.10 0.11 0.13 0.13 0.13 0.16 0.12
0.00 0.01 0.01 0.01 0.01 0.01 0.02 0.03 0.05 0.07 0.07 0.08 0.09 0.06 0.06 0.08 0.10 0.11 0.13 0.12 0.11 0.07 0.04 0.05 0.04 0.02 0.03 0.05 0.07 0.08 0.08 0.06 0.04 0.04 0.05 0.07 0.08 0.08 0.10 0.09 0.07 0.07 0.07 0.05
0.00 0.00 0.01 0.02 0.03 0.05 0.06 0.07 0.07 0.05 0.06 0.06 0.04 0.04 0.07 0.10 0.11 0.10 0.08 0.07 0.05 0.03 0.04 0.07 0.08 0.05 0.06 0.07 0.09 0.07 0.04 0.02 0.03 0.06 0.05 0.03 0.03 0.03 0.03 0.03 0.03 0.03 0.03 0.03
0.00 0.01 0.03 0.08 0.11 0.09 0.07 0.07 0.06 0.03 0.04 0.04 0.04 0.03 0.04 0.04 0.03 0.02 0.01 0.02 0.03 0.06 0.15 0.09 0.02 0.02 0.02 0.03 0.02 0.01 0.01 0.03 0.04 0.03 0.02 0.02 0.02 0.01 0.02 0.02 0.02 0.03 0.03 0.03
0.04 0.07 0.09 0.07 0.05 0.04 0.04 0.02 0.01 0.01 0.01 0.01 0.01 0.01 0.01 0.01 0.01 0.01 0.01 0.02 0.07 0.08 0.05 0.04 0.01 0.01 0.02 0.02 0.05 0.03 0.02 0.03 0.03 0.02 0.02 0.02 0.02 0.02 0.02 0.02 0.03 0.03 0.03 0.03
0.06 0.07 0.06 0.03 0.01 0.00 0.01 0.01 0.01 0.01 0.01 0.01 0.02 0.02 0.02 0.02 0.03 0.02 0.02 0.04 0.11 0.09 0.03 0.01 0.00 0.01 0.01 0.01 0.01 0.00 0.02 0.02 0.03 0.03 0.03 0.03 0.03 0.03 0.03 0.03 0.03 0.03 0.03 0.03
0.02 0.01 0.01 0.00 0.00 0.00 0.00 0.00 0.01 0.01 0.02 0.02 0.02 0.02 0.03 0.03 0.02 0.02 0.02 0.02 0.02 0.01 0.00 0.00 0.00 0.00 0.00 0.00 0.00 0.01 0.01 0.02 0.03 0.03 0.04 0.04 0.05 0.04 0.04 0.04 0.04 0.03 0.03 0.04
0.00 0.00 0.00 0.00 0.00 0.00 0.00 0.01 0.01 0.01 0.02 0.01 0.02 0.02 0.01 0.01 0.01 0.01 0.02 0.00 0.00 0.00 0.00 0.00 0.00 0.00 0.00 0.01 0.02 0.02 0.03 0.03 0.04 0.04 0.04 0.05 0.06 0.07 0.07 0.06 0.05 0.06 0.06 0.05
0.00 0.00 0.00 0.00 0.00 0.00 0.00 0.00 0.00 0.00 0.01 0.00 0.01 0.00 0.00 0.01 0.01 0.00 0.01 0.01 0.00 0.00 0.01 0.01 0.01 0.01 0.02 0.03 0.03 0.04 0.04 0.05 0.05 0.06 0.06 0.06 0.06 0.05 0.05 0.05 0.05 0.05 0.06 0.05
0.00 0.00 0.00 0.00 0.00 0.00 0.00 0.00 0.00 0.00 0.00 0.00 0.00 0.00 0.00 0.01 0.02 0.01 0.01 0.02 0.01 0.01 0.02 0.01 0.02 0.02 0.03 0.04 0.05 0.05 0.05 0.05 0.05 0.06 0.06 0.07 0.05 0.05 0.05 0.05 0.04 0.05 0.06 0.06
0.00 0.00 0.00 0.00 0.00 0.00 0.00 0.00 0.00 0.00 0.00 0.00 0.00 0.00 0.01 0.01 0.01 0.01 0.01 0.02 0.02 0.02 0.02 0.03 0.03 0.03 0.04 0.05 0.05 0.05 0.05 0.05 0.06 0.06 0.07 0.07 0.07 0.07 0.06 0.05 0.05 0.05 0.05 0.06
0.00 0.00 0.00 0.00 0.00 0.00 0.00 0.00 0.00 0.00 0.01 0.02 0.01 0.01 0.02 0.01 0.02 0.02 0.02 0.02 0.02 0.03 0.03 0.03 0.03 0.04 0.04 0.04 0.04 0.04 0.05 0.06 0.07 0.08 0.08 0.08 0.09 0.09 0.07 0.06 0.04 0.03 0.03 0.04

GFSNGP_prec_precacc24_246.txt.gz
Total_Precipitation_Accumulation
0.09 0.09 0.11 0.10 0.05 0.02 0.05 0.04 0.08 0.03 0.00 0.00 0.00 0.12 0.21 0.16 0.13 0.12 0.13 0.11 0.06 0.02 0.01 0.03 0.06 0.03 0.00 0.00 0.01 0.04 0.11 0.13 0.26 0.33 0.09 0.01 0.00 0.00 0.00 0.00 0.00 0.00 0.00 0.00
0.02 0.00 0.01 0.02 0.00 0.00 0.01 0.00 0.01 0.00 0.00 0.00 0.00 0.01 0.05 0.06 0.05 0.07 0.06 0.02 0.00 0.00 0.00 0.00 0.00 0.00 0.00 0.04 0.16 0.17 0.11 0.14 0.22 0.04 0.01 0.00 0.00 0.00 0.00 0.00 0.00 0.00 0.00 0.00
0.07 0.01 0.01 0.02 0.00 0.00 0.00 0.00 0.00 0.01 0.00 0.00 0.00 0.00 0.00 0.00 0.00 0.00 0.00 0.00 0.00 0.00 0.00 0.00 0.00 0.00 0.01 0.13 0.23 0.25 0.28 0.22 0.10 0.02 0.00 0.00 0.00 0.00 0.00 0.00 0.00 0.00 0.01 0.01
0.18 0.10 0.16 0.01 0.00 0.00 0.00 0.00 0.00 0.00 0.00 0.00 0.00 0.00 0.00 0.00 0.00 0.00 0.00 0.00 0.00 0.00 0.00 0.00 0.00 0.00 0.01 0.08 0.19 0.26 0.30 0.17 0.05 0.00 0.00 0.00 0.00 0.00 0.00 0.00 0.01 0.01 0.01 0.01
0.38 0.24 0.05 0.00 0.00 0.00 0.00 0.00 0.00 0.00 0.00 0.00 0.00 0.00 0.00 0.00 0.00 0.00 0.00 0.00 0.00 0.00 0.00 0.00 0.00 0.00 0.00 0.01 0.02 0.03 0.02 0.00 0.00 0.00 0.00 0.00 0.00 0.01 0.01 0.02 0.03 0.02 0.02 0.02
0.43 0.39 0.09 0.00 0.00 0.00 0.00 0.01 0.00 0.00 0.00 0.00 0.00 0.00 0.00 0.00 0.00 0.00 0.00 0.00 0.00 0.00 0.00 0.00 0.00 0.00 0.00 0.00 0.00 0.00 0.00 0.00 0.00 0.01 0.03 0.03 0.02 0.01 0.01 0.01 0.01 0.01 0.01 0.01
0.27 0.58 0.18 0.00 0.00 0.00 0.05 0.04 0.00 0.00 0.00 0.00 0.00 0.00 0.00 0.00 0.00 0.00 0.00 0.00 0.00 0.00 0.00 0.00 0.00 0.00 0.00 0.00 0.00 0.00 0.01 0.02 0.02 0.01 0.01 0.00 0.00 0.00 0.00 0.01 0.01 0.01 0.01 0.01
0.21 0.53 0.20 0.00 0.00 0.00 0.01 0.00 0.00 0.00 0.00 0.00 0.00 0.00 0.00 0.00 0.00 0.00 0.00 0.00 0.00 0.00 0.00 0.00 0.00 0.00 0.01 0.02 0.03 0.02 0.02 0.01 0.00 0.00 0.00 0.00 0.00 0.00 0.01 0.01 0.03 0.03 0.04 0.03
0.17 0.13 0.01 0.02 0.02 0.02 0.00 0.00 0.00 0.00 0.01 0.01 0.00 0.00 0.00 0.00 0.00 0.00 0.00 0.00 0.00 0.00 0.00 0.01 0.02 0.05 0.07 0.05 0.02 0.01 0.01 0.01 0.01 0.01 0.01 0.02 0.03 0.04 0.05 0.07 0.10 0.10 0.10 0.10
0.19 0.16 0.07 0.08 0.05 0.01 0.01 0.01 0.02 0.02 0.01 0.00 0.00 0.00 0.00 0.00 0.00 0.00 0.00 0.00 0.00 0.01 0.02 0.02 0.02 0.02 0.03 0.06 0.07 0.08 0.07 0.05 0.03 0.04 0.04 0.05 0.07 0.07 0.09 0.11 0.13 0.15 0.17 0.16
0.31 0.15 0.15 0.08 0.01 0.01 0.01 0.01 0.00 0.01 0.00 0.00 0.00 0.00 0.00 0.00 0.00 0.00 0.00 0.00 0.02 0.03 0.03 0.04 0.08 0.10 0.11 0.12 0.10 0.07 0.04 0.03 0.03 0.03 0.03 0.03 0.04 0.05 0.10 0.13 0.18 0.27 0.29 0.30
0.16 0.03 0.06 0.05 0.01 0.00 0.00 0.00 0.00 0.00 0.00 0.00 0.00 0.00 0.00 0.01 0.01 0.01 0.02 0.03 0.06 0.09 0.10 0.10 0.07 0.03 0.02 0.03 0.03 0.03 0.03 0.03 0.05 0.08 0.09 0.11 0.15 0.16 0.17 0.22 0.27 0.31 0.31 0.33
0.01 0.01 0.03 0.04 0.01 0.00 0.00 0.00 0.00 0.00 0.00 0.00 0.00 0.01 0.01 0.02 0.03 0.06 0.09 0.11 0.09 0.06 0.06 0.04 0.05 0.09 0.11 0.15 0.13 0.10 0.11 0.12 0.15 0.18 0.20 0.22 0.24 0.25 0.23 0.16 0.16 0.16 0.18 0.18
0.00 0.01 0.05 0.04 0.02 0.00 0.00 0.00 0.00 0.00 0.01 0.02 0.03 0.04 0.04 0.04 0.04 0.03 0.03 0.02 0.02 0.03 0.04 0.10 0.17 0.18 0.18 0.19 0.21 0.19 0.17 0.17 0.20 0.24 0.27 0.26 0.24 0.23 0.22 0.20 0.17 0.13 0.13 0.18
0.00 0.00 0.00 0.02 0.01 0.00 0.00 0.00 0.01 0.02 0.03 0.03 0.04 0.05 0.04 0.03 0.02 0.02 0.03 0.04 0.05 0.08 0.13 0.16 0.15 0.15 0.17 0.18 0.19 0.17 0.17 0.18 0.18 0.15 0.13 0.14 0.14 0.14 0.14 0.15 0.16 0.17 0.16 0.18
0.00 0.00 0.00 0.00 0.00 0.00 0.01 0.02 0.03 0.03 0.04 0.04 0.05 0.06 0.05 0.03 0.03 0.05 0.09 0.14 0.16 0.14 0.12 0.13 0.10 0.07 0.08 0.09 0.08 0.10 0.11 0.10 0.10 0.09 0.07 0.07 0.09 0.10 0.11 0.13 0.12 0.12 0.16 0.12
0.00 0.01 0.01 0.01 0.01 0.01 0.02 0.03 0.04 0.07 0.07 0.08 0.09 0.05 0.04 0.05 0.06 0.08 0.10 0.11 0.10 0.07 0.04 0.05 0.04 0.02 0.03 0.05 0.07 0.08 0.08 0.06 0.05 0.04 0.05 0.07 0.07 0.08 0.10 0.10 0.07 0.07 0.06 0.05
0.00 0.00 0.01 0.02 0.03 0.05 0.06 0.07 0.07 0.05 0.05 0.04 0.02 0.01 0.02 0.03 0.06 0.07 0.07 0.06 0.05 0.03 0.04 0.07 0.08 0.05 0.06 0.07 0.09 0.07 0.04 0.02 0.02 0.06 0.05 0.03 0.03 0.03 0.03 0.03 0.03 0.03 0.02 0.02
0.00 0.01 0.03 0.06 0.09 0.08 0.07 0.06 0.04 0.01 0.02 0.01 0.01 0.01 0.01 0.02 0.02 0.01 0.01 0.01 0.02 0.04 0.12 0.09 0.02 0.02 0.02 0.03 0.02 0.01 0.02 0.03 0.04 0.03 0.02 0.02 0.02 0.01 0.02 0.02 0.02 0.02 0.03 0.02
0.01 0.02 0.04 0.03 0.02 0.03 0.03 0.02 0.01 0.01 0.00 0.01 0.01 0.01 0.01 0.01 0.01 0.01 0.01 0.01 0.04 0.06 0.03 0.03 0.01 0.01 0.02 0.02 0.05 0.03 0.02 0.03 0.03 0.02 0.03 0.03 0.02 0.03 0.02 0.02 0.02 0.02 0.03 0.03
0.01 0.01 0.00 0.00 0.00 0.00 0.00 0.00 0.01 0.00 0.01 0.01 0.02 0.01 0.01 0.02 0.03 0.02 0.02 0.02 0.08 0.08 0.02 0.00 0.00 0.01 0.01 0.01 0.01 0.00 0.02 0.03 0.03 0.04 0.04 0.04 0.04 0.03 0.03 0.03 0.03 0.03 0.03 0.03
0.00 0.00 0.00 0.00 0.00 0.00 0.00 0.00 0.01 0.00 0.01 0.01 0.01 0.01 0.01 0.01 0.01 0.01 0.01 0.02 0.02 0.01 0.00 0.00 0.00 0.00 0.00 0.00 0.00 0.01 0.01 0.02 0.03 0.04 0.05 0.05 0.05 0.05 0.04 0.04 0.03 0.03 0.03 0.03
0.00 0.00 0.00 0.00 0.00 0.00 0.00 0.00 0.00 0.00 0.01 0.01 0.01 0.01 0.00 0.00 0.00 0.01 0.02 0.00 0.00 0.00 0.00 0.00 0.00 0.00 0.00 0.01 0.02 0.02 0.03 0.03 0.04 0.05 0.05 0.06 0.07 0.08 0.08 0.06 0.05 0.05 0.05 0.04
0.00 0.00 0.00 0.00 0.00 0.00 0.00 0.00 0.00 0.00 0.00 0.00 0.00 0.00 0.00 0.01 0.01 0.00 0.01 0.01 0.00 0.00 0.01 0.01 0.01 0.01 0.02 0.03 0.03 0.04 0.04 0.05 0.05 0.06 0.06 0.07 0.07 0.06 0.05 0.05 0.06 0.05 0.04 0.03
0.00 0.00 0.00 0.00 0.00 0.00 0.00 0.00 0.00 0.00 0.00 0.00 0.00 0.00 0.00 0.01 0.02 0.01 0.01 0.02 0.01 0.01 0.02 0.01 0.02 0.02 0.03 0.04 0.05 0.05 0.05 0.05 0.05 0.06 0.07 0.07 0.06 0.06 0.06 0.05 0.05 0.05 0.05 0.04
0.00 0.00 0.00 0.00 0.00 0.00 0.00 0.00 0.00 0.00 0.00 0.00 0.00 0.00 0.01 0.01 0.01 0.01 0.01 0.01 0.01 0.01 0.02 0.03 0.03 0.03 0.04 0.04 0.04 0.04 0.04 0.05 0.06 0.06 0.07 0.07 0.07 0.08 0.08 0.07 0.07 0.06 0.05 0.04
0.00 0.00 0.00 0.00 0.00 0.00 0.00 0.00 0.00 0.00 0.01 0.02 0.01 0.01 0.01 0.01 0.02 0.01 0.01 0.02 0.02 0.02 0.03 0.03 0.03 0.03 0.03 0.03 0.03 0.04 0.04 0.06 0.06 0.08 0.07 0.07 0.09 0.10 0.10 0.08 0.06 0.05 0.05 0.03

GFSNGP_prec_precacc24_249.txt.gz
Total_Precipitation_Accumulation
0.09 0.09 0.11 0.10 0.04 0.02 0.04 0.04 0.05 0.02 0.00 0.00 0.00 0.12 0.21 0.16 0.13 0.12 0.13 0.11 0.06 0.02 0.01 0.03 0.06 0.03 0.00 0.00 0.00 0.00 0.02 0.04 0.07 0.19 0.08 0.01 0.00 0.00 0.00 0.00 0.00 0.00 0.00 0.01
0.02 0.00 0.01 0.02 0.00 0.00 0.00 0.00 0.00 0.00 0.00 0.00 0.00 0.01 0.05 0.06 0.05 0.07 0.06 0.02 0.00 0.00 0.00 0.00 0.00 0.00 0.00 0.00 0.00 0.00 0.01 0.02 0.07 0.03 0.01 0.00 0.00 0.00 0.00 0.00 0.00 0.00 0.00 0.00
0.05 0.01 0.01 0.02 0.00 0.00 0.00 0.00 0.00 0.00 0.00 0.00 0.00 0.00 0.00 0.00 0.00 0.00 0.00 0.00 0.00 0.00 0.00 0.00 0.00 0.00 0.00 0.00 0.00 0.00 0.01 0.04 0.04 0.01 0.00 0.00 0.00 0.00 0.00 0.00 0.00 0.01 0.01 0.01
0.16 0.10 0.15 0.01 0.00 0.00 0.00 0.00 0.00 0.00 0.00 0.00 0.00 0.00 0.00 0.00 0.00 0.00 0.00 0.00 0.00 0.00 0.00 0.00 0.00 0.00 0.00 0.00 0.00 0.00 0.00 0.01 0.01 0.00 0.00 0.00 0.00 0.00 0.00 0.00 0.01 0.01 0.01 0.01
0.36 0.23 0.05 0.00 0.00 0.00 0.00 0.00 0.00 0.00 0.00 0.00 0.00 0.00 0.00 0.00 0.00 0.00 0.00 0.00 0.00 0.00 0.00 0.00 0.00 0.00 0.00 0.00 0.00 0.00 0.00 0.00 0.00 0.00 0.00 0.00 0.00 0.01 0.01 0.02 0.03 0.02 0.02 0.02
0.39 0.38 0.09 0.00 0.00 0.00 0.00 0.01 0.00 0.00 0.00 0.00 0.00 0.00 0.00 0.00 0.00 0.00 0.00 0.00 0.00 0.00 0.00 0.00 0.00 0.00 0.00 0.00 0.00 0.00 0.00 0.00 0.00 0.01 0.03 0.03 0.02 0.01 0.01 0.01 0.01 0.00 0.01 0.01
0.24 0.56 0.18 0.00 0.00 0.00 0.06 0.05 0.00 0.00 0.00 0.00 0.00 0.00 0.00 0.00 0.00 0.00 0.00 0.00 0.00 0.00 0.00 0.00 0.00 0.00 0.00 0.00 0.00 0.00 0.01 0.02 0.02 0.01 0.01 0.00 0.00 0.00 0.00 0.01 0.01 0.01 0.01 0.01
0.21 0.51 0.20 0.00 0.00 0.00 0.02 0.00 0.00 0.00 0.00 0.00 0.00 0.00 0.00 0.00 0.00 0.00 0.00 0.00 0.00 0.00 0.00 0.00 0.00 0.00 0.01 0.02 0.03 0.02 0.02 0.01 0.00 0.00 0.00 0.00 0.00 0.00 0.01 0.01 0.03 0.03 0.04 0.04
0.17 0.13 0.01 0.02 0.02 0.02 0.00 0.00 0.00 0.00 0.01 0.01 0.00 0.00 0.00 0.00 0.00 0.00 0.00 0.00 0.00 0.00 0.00 0.01 0.02 0.05 0.07 0.05 0.02 0.01 0.01 0.01 0.01 0.01 0.01 0.02 0.03 0.04 0.05 0.07 0.10 0.11 0.11 0.11
0.19 0.16 0.07 0.08 0.05 0.01 0.01 0.01 0.02 0.02 0.01 0.00 0.00 0.00 0.00 0.00 0.00 0.00 0.00 0.00 0.00 0.01 0.02 0.02 0.02 0.02 0.03 0.06 0.07 0.08 0.07 0.05 0.03 0.04 0.04 0.05 0.07 0.07 0.09 0.11 0.14 0.16 0.18 0.18
0.32 0.15 0.15 0.08 0.01 0.01 0.01 0.01 0.00 0.01 0.00 0.00 0.00 0.00 0.00 0.00 0.00 0.00 0.00 0.00 0.02 0.03 0.03 0.04 0.08 0.10 0.11 0.12 0.10 0.07 0.04 0.03 0.03 0.03 0.03 0.03 0.04 0.05 0.10 0.13 0.18 0.28 0.30 0.32
0.16 0.03 0.06 0.05 0.01 0.00 0.00 0.00 0.00 0.00 0.00 0.00 0.00 0.00 0.00 0.01 0.01 0.01 0.02 0.03 0.06 0.09 0.10 0.10 0.07 0.03 0.02 0.03 0.03 0.03 0.03 0.03 0.05 0.08 0.09 0.11 0.15 0.16 0.17 0.22 0.27 0.31 0.31 0.34
0.01 0.01 0.03 0.04 0.01 0.00 0.00 0.00 0.00 0.00 0.00 0.00 0.00 0.01 0.01 0.02 0.03 0.06 0.09 0.11 0.09 0.06 0.06 0.04 0.05 0.09 0.11 0.15 0.13 0.10 0.11 0.12 0.15 0.18 0.20 0.22 0.24 0.25 0.24 0.17 0.16 0.17 0.18 0.18
0.00 0.01 0.05 0.04 0.02 0.00 0.00 0.00 0.00 0.00 0.00 0.01 0.03 0.04 0.03 0.04 0.04 0.03 0.03 0.02 0.02 0.03 0.04 0.10 0.17 0.18 0.18 0.19 0.21 0.19 0.17 0.17 0.20 0.24 0.27 0.27 0.25 0.24 0.24 0.22 0.18 0.14 0.13 0.18
0.00 0.00 0.00 0.02 0.01 0.00 0.00 0.00 0.00 0.01 0.01 0.01 0.02 0.04 0.03 0.02 0.01 0.01 0.02 0.03 0.05 0.08 0.12 0.16 0.15 0.15 0.17 0.18 0.19 0.17 0.17 0.18 0.18 0.16 0.13 0.15 0.14 0.14 0.14 0.16 0.17 0.18 0.16 0.18
0.00 0.00 0.00 0.00 0.00 0.00 0.00 0.01 0.02 0.02 0.03 0.03 0.04 0.05 0.03 0.01 0.01 0.03 0.05 0.08 0.11 0.11 0.10 0.12 0.10 0.07 0.08 0.09 0.08 0.10 0.11 0.10 0.10 0.09 0.08 0.07 0.09 0.10 0.11 0.14 0.13 0.13 0.17 0.12
0.00 0.01 0.00 0.01 0.00 0.00 0.01 0.02 0.03 0.06 0.06 0.06 0.06 0.02 0.01 0.00 0.00 0.01 0.01 0.02 0.04 0.04 0.02 0.05 0.04 0.02 0.03 0.05 0.07 0.08 0.08 0.06 0.05 0.04 0.05 0.08 0.08 0.08 0.10 0.10 0.08 0.07 0.07 0.05
0.00 0.00 0.00 0.00 0.01 0.02 0.02 0.03 0.04 0.03 0.04 0.04 0.01 0.00 0.00 0.00 0.01 0.01 0.01 0.00 0.00 0.00 0.03 0.05 0.06 0.05 0.06 0.07 0.09 0.07 0.04 0.02 0.02 0.06 0.05 0.04 0.03 0.03 0.03 0.04 0.03 0.03 0.02 0.02
0.00 0.00 0.00 0.00 0.00 0.01 0.01 0.01 0.01 0.00 0.01 0.00 0.00 0.00 0.01 0.01 0.01 0.01 0.00 0.00 0.01 0.02 0.07 0.04 0.01 0.01 0.02 0.03 0.02 0.01 0.02 0.03 0.04 0.03 0.03 0.03 0.02 0.02 0.02 0.02 0.02 0.02 0.02 0.02
0.00 0.00 0.00 0.00 0.00 0.00 0.00 0.00 0.00 0.00 0.00 0.00 0.00 0.00 0.00 0.00 0.01 0.01 0.00 0.01 0.03 0.05 0.03 0.02 0.00 0.00 0.01 0.02 0.04 0.03 0.02 0.03 0.03 0.02 0.03 0.03 0.03 0.03 0.02 0.02 0.02 0.02 0.02 0.03
0.00 0.00 0.00 0.00 0.00 0.00 0.00 0.00 0.00 0.00 0.00 0.00 0.00 0.00 0.00 0.00 0.01 0.01 0.00 0.01 0.02 0.03 0.02 0.00 0.00 0.01 0.01 0.01 0.01 0.00 0.02 0.03 0.03 0.04 0.04 0.04 0.05 0.04 0.03 0.03 0.03 0.03 0.03 0.03
0.00 0.00 0.00 0.00 0.00 0.00 0.00 0.00 0.00 0.00 0.00 0.00 0.00 0.00 0.00 0.00 0.00 0.00 0.00 0.01 0.01 0.00 0.00 0.00 0.00 0.00 0.00 0.00 0.00 0.01 0.01 0.02 0.03 0.04 0.05 0.06 0.06 0.06 0.05 0.04 0.04 0.03 0.03 0.03
0.00 0.00 0.00 0.00 0.00 0.00 0.00 0.00 0.00 0.00 0.00 0.00 0.00 0.00 0.00 0.00 0.00 0.01 0.01 0.00 0.00 0.00 0.00 0.00 0.00 0.00 0.00 0.01 0.02 0.02 0.03 0.03 0.04 0.04 0.05 0.06 0.07 0.09 0.09 0.07 0.06 0.05 0.05 0.04
0.00 0.00 0.00 0.00 0.00 0.00 0.00 0.00 0.00 0.00 0.00 0.00 0.00 0.00 0.00 0.00 0.01 0.00 0.01 0.01 0.00 0.00 0.00 0.01 0.01 0.01 0.01 0.02 0.03 0.03 0.04 0.04 0.04 0.05 0.05 0.06 0.07 0.07 0.06 0.06 0.07 0.05 0.05 0.03
0.00 0.00 0.00 0.00 0.00 0.00 0.00 0.00 0.00 0.00 0.00 0.00 0.00 0.00 0.00 0.00 0.01 0.01 0.01 0.01 0.00 0.01 0.01 0.01 0.01 0.02 0.02 0.03 0.04 0.04 0.04 0.05 0.04 0.06 0.06 0.07 0.06 0.06 0.06 0.07 0.06 0.06 0.06 0.05
0.00 0.00 0.00 0.00 0.00 0.00 0.00 0.00 0.00 0.00 0.00 0.00 0.00 0.00 0.01 0.01 0.01 0.01 0.01 0.01 0.01 0.01 0.01 0.02 0.02 0.02 0.02 0.03 0.03 0.03 0.03 0.04 0.05 0.06 0.06 0.06 0.06 0.08 0.08 0.08 0.08 0.07 0.07 0.06
0.00 0.00 0.00 0.00 0.00 0.00 0.00 0.00 0.00 0.00 0.01 0.01 0.00 0.01 0.01 0.01 0.01 0.01 0.01 0.01 0.01 0.01 0.01 0.01 0.01 0.01 0.02 0.01 0.02 0.02 0.03 0.04 0.05 0.07 0.06 0.07 0.09 0.10 0.10 0.09 0.07 0.07 0.07 0.05

GFSNGP_prec_precacc24_252.txt.gz
Total_Precipitation_Accumulation
0.09 0.09 0.11 0.09 0.03 0.01 0.03 0.02 0.04 0.01 0.00 0.00 0.00 0.12 0.21 0.16 0.13 0.12 0.13 0.11 0.06 0.02 0.01 0.03 0.06 0.03 0.00 0.00 0.00 0.00 0.00 0.00 0.00 0.00 0.00 0.00 0.00 0.00 0.00 0.00 0.00 0.00 0.00 0.01
0.01 0.00 0.01 0.02 0.00 0.00 0.00 0.00 0.00 0.00 0.00 0.00 0.00 0.01 0.05 0.06 0.05 0.07 0.06 0.02 0.00 0.00 0.00 0.00 0.00 0.00 0.00 0.00 0.00 0.00 0.00 0.00 0.00 0.00 0.00 0.00 0.00 0.00 0.00 0.00 0.00 0.00 0.00 0.00
0.02 0.00 0.01 0.01 0.00 0.00 0.00 0.00 0.00 0.00 0.00 0.00 0.00 0.00 0.00 0.00 0.00 0.00 0.00 0.00 0.00 0.00 0.00 0.00 0.00 0.00 0.00 0.00 0.00 0.00 0.00 0.00 0.00 0.00 0.00 0.00 0.00 0.00 0.00 0.00 0.00 0.00 0.01 0.01
0.08 0.05 0.11 0.01 0.00 0.00 0.00 0.00 0.00 0.00 0.00 0.00 0.00 0.00 0.00 0.00 0.00 0.00 0.00 0.00 0.00 0.00 0.00 0.00 0.00 0.00 0.00 0.00 0.00 0.00 0.00 0.00 0.00 0.00 0.00 0.00 0.00 0.00 0.00 0.00 0.00 0.01 0.01 0.01
0.23 0.18 0.05 0.00 0.00 0.00 0.00 0.00 0.00 0.00 0.00 0.00 0.00 0.00 0.00 0.00 0.00 0.00 0.00 0.00 0.00 0.00 0.00 0.00 0.00 0.00 0.00 0.00 0.00 0.00 0.00 0.00 0.00 0.00 0.00 0.00 0.00 0.01 0.01 0.02 0.03 0.02 0.02 0.02
0.26 0.31 0.08 0.00 0.00 0.00 0.00 0.01 0.00 0.00 0.00 0.00 0.00 0.00 0.00 0.00 0.00 0.00 0.00 0.00 0.00 0.00 0.00 0.00 0.00 0.00 0.00 0.00 0.00 0.00 0.00 0.00 0.00 0.01 0.03 0.03 0.02 0.01 0.01 0.01 0.01 0.00 0.00 0.00
0.16 0.45 0.16 0.00 0.00 0.00 0.06 0.05 0.00 0.00 0.00 0.00 0.00 0.00 0.00 0.00 0.00 0.00 0.00 0.00 0.00 0.00 0.00 0.00 0.00 0.00 0.00 0.00 0.00 0.00 0.01 0.02 0.02 0.01 0.01 0.00 0.00 0.00 0.00 0.00 0.01 0.01 0.01 0.01
0.17 0.43 0.17 0.00 0.00 0.00 0.02 0.00 0.00 0.00 0.00 0.00 0.00 0.00 0.00 0.00 0.00 0.00 0.00 0.00 0.00 0.00 0.00 0.00 0.00 0.00 0.01 0.02 0.03 0.02 0.02 0.01 0.00 0.00 0.00 0.00 0.00 0.00 0.01 0.01 0.03 0.03 0.04 0.04
0.17 0.12 0.01 0.02 0.02 0.02 0.00 0.00 0.00 0.00 0.01 0.01 0.00 0.00 0.00 0.00 0.00 0.00 0.00 0.00 0.00 0.00 0.00 0.01 0.02 0.05 0.07 0.05 0.02 0.01 0.01 0.01 0.01 0.01 0.01 0.02 0.03 0.04 0.05 0.07 0.10 0.11 0.11 0.11
0.19 0.16 0.07 0.08 0.05 0.01 0.01 0.01 0.02 0.02 0.01 0.00 0.00 0.00 0.00 0.00 0.00 0.00 0.00 0.00 0.00 0.01 0.02 0.02 0.02 0.02 0.03 0.06 0.07 0.08 0.07 0.05 0.03 0.04 0.04 0.05 0.07 0.07 0.09 0.11 0.14 0.17 0.19 0.19
0.32 0.15 0.15 0.08 0.01 0.01 0.01 0.01 0.00 0.01 0.00 0.00 0.00 0.00 0.00 0.00 0.00 0.00 0.00 0.00 0.02 0.03 0.03 0.04 0.08 0.10 0.11 0.12 0.10 0.07 0.04 0.03 0.03 0.03 0.03 0.03 0.04 0.05 0.10 0.13 0.19 0.29 0.32 0.34
0.16 0.03 0.06 0.05 0.01 0.00 0.00 0.00 0.00 0.00 0.00 0.00 0.00 0.00 0.00 0.01 0.01 0.01 0.01 0.03 0.06 0.09 0.10 0.10 0.07 0.03 0.02 0.03 0.03 0.03 0.03 0.03 0.05 0.08 0.09 0.12 0.15 0.16 0.17 0.22 0.27 0.32 0.31 0.34
0.01 0.01 0.03 0.04 0.01 0.00 0.00 0.00 0.00 0.00 0.00 0.00 0.00 0.00 0.00 0.01 0.02 0.05 0.09 0.10 0.08 0.06 0.06 0.04 0.05 0.09 0.11 0.15 0.13 0.10 0.11 0.12 0.15 0.18 0.20 0.23 0.24 0.26 0.24 0.17 0.16 0.17 0.18 0.18
0.00 0.01 0.05 0.04 0.02 0.00 0.00 0.00 0.00 0.00 0.00 0.00 0.01 0.02 0.02 0.02 0.01 0.01 0.01 0.01 0.01 0.02 0.04 0.10 0.17 0.18 0.18 0.19 0.21 0.19 0.17 0.17 0.20 0.24 0.28 0.27 0.26 0.24 0.24 0.22 0.18 0.14 0.13 0.18
0.00 0.00 0.00 0.02 0.01 0.00 0.00 0.00 0.00 0.00 0.00 0.00 0.01 0.03 0.02 0.01 0.00 0.00 0.00 0.00 0.00 0.04 0.10 0.12 0.11 0.13 0.15 0.16 0.19 0.17 0.17 0.18 0.18 0.16 0.14 0.15 0.15 0.14 0.15 0.16 0.17 0.18 0.17 0.18
0.00 0.00 0.00 0.00 0.00 0.00 0.00 0.00 0.00 0.00 0.01 0.01 0.02 0.03 0.03 0.01 0.00 0.00 0.00 0.00 0.00 0.00 0.01 0.02 0.03 0.02 0.03 0.05 0.07 0.09 0.11 0.10 0.10 0.09 0.08 0.07 0.09 0.11 0.12 0.14 0.14 0.14 0.17 0.13
0.00 0.00 0.00 0.00 0.00 0.00 0.00 0.00 0.00 0.00 0.01 0.01 0.01 0.00 0.00 0.00 0.00 0.00 0.00 0.00 0.00 0.00 0.00 0.01 0.01 0.00 0.01 0.04 0.07 0.08 0.07 0.06 0.05 0.04 0.05 0.08 0.08 0.09 0.10 0.11 0.09 0.08 0.07 0.06
0.00 0.00 0.00 0.00 0.00 0.00 0.00 0.00 0.00 0.00 0.00 0.00 0.00 0.00 0.00 0.00 0.00 0.00 0.00 0.00 0.00 0.00 0.02 0.03 0.01 0.00 0.00 0.02 0.06 0.06 0.04 0.02 0.02 0.06 0.05 0.04 0.04 0.04 0.04 0.04 0.04 0.03 0.02 0.02
0.00 0.00 0.00 0.00 0.00 0.00 0.00 0.00 0.00 0.00 0.00 0.00 0.00 0.00 0.00 0.00 0.00 0.00 0.00 0.00 0.00 0.01 0.02 0.02 0.00 0.00 0.00 0.01 0.01 0.01 0.01 0.03 0.04 0.02 0.02 0.02 0.02 0.02 0.02 0.03 0.03 0.03 0.03 0.03
0.00 0.00 0.00 0.00 0.00 0.00 0.00 0.00 0.00 0.00 0.00 0.00 0.00 0.00 0.00 0.00 0.00 0.00 0.00 0.00 0.01 0.01 0.00 0.01 0.00 0.00 0.01 0.01 0.01 0.01 0.02 0.03 0.03 0.02 0.02 0.03 0.03 0.03 0.03 0.02 0.03 0.03 0.03 0.03
0.00 0.00 0.00 0.00 0.00 0.00 0.00 0.00 0.00 0.00 0.00 0.00 0.00 0.00 0.00 0.00 0.00 0.00 0.00 0.00 0.00 0.00 0.00 0.00 0.00 0.00 0.00 0.00 0.00 0.00 0.01 0.02 0.02 0.04 0.04 0.04 0.04 0.04 0.04 0.04 0.04 0.04 0.04 0.03
0.00 0.00 0.00 0.00 0.00 0.00 0.00 0.00 0.00 0.00 0.00 0.00 0.00 0.00 0.00 0.00 0.00 0.00 0.00 0.00 0.00 0.00 0.00 0.00 0.00 0.00 0.00 0.00 0.00 0.01 0.01 0.02 0.03 0.03 0.04 0.05 0.06 0.06 0.05 0.04 0.04 0.04 0.03 0.03
0.00 0.00 0.00 0.00 0.00 0.00 0.00 0.00 0.00 0.00 0.00 0.00 0.00 0.00 0.00 0.00 0.00 0.00 0.01 0.00 0.00 0.00 0.00 0.00 0.00 0.00 0.00 0.01 0.01 0.01 0.02 0.02 0.03 0.03 0.04 0.05 0.06 0.08 0.08 0.07 0.06 0.06 0.06 0.05
0.00 0.00 0.00 0.00 0.00 0.00 0.00 0.00 0.00 0.00 0.00 0.00 0.00 0.00 0.00 0.00 0.00 0.00 0.00 0.00 0.00 0.00 0.00 0.00 0.00 0.00 0.01 0.01 0.02 0.02 0.02 0.03 0.03 0.04 0.04 0.05 0.05 0.05 0.05 0.05 0.06 0.05 0.05 0.04
0.00 0.00 0.00 0.00 0.00 0.00 0.00 0.00 0.00 0.00 0.00 0.00 0.00 0.00 0.00 0.00 0.00 0.00 0.00 0.00 0.00 0.00 0.00 0.00 0.00 0.01 0.01 0.01 0.02 0.02 0.02 0.03 0.03 0.04 0.05 0.05 0.05 0.05 0.06 0.06 0.06 0.06 0.06 0.06
0.00 0.00 0.00 0.00 0.00 0.00 0.00 0.00 0.00 0.00 0.00 0.00 0.00 0.00 0.00 0.00 0.00 0.00 0.00 0.00 0.00 0.00 0.00 0.00 0.00 0.00 0.01 0.01 0.01 0.01 0.02 0.02 0.03 0.04 0.05 0.04 0.05 0.06 0.07 0.06 0.06 0.06 0.06 0.06
0.00 0.00 0.00 0.00 0.00 0.00 0.00 0.00 0.00 0.00 0.00 0.00 0.00 0.00 0.00 0.00 0.00 0.00 0.00 0.00 0.00 0.00 0.00 0.00 0.00 0.00 0.00 0.00 0.01 0.01 0.02 0.03 0.04 0.05 0.05 0.05 0.07 0.08 0.08 0.07 0.06 0.06 0.06 0.05

GFSNGP_prec_precacc24_255.txt.gz
Total_Precipitation_Accumulation
0.09 0.09 0.11 0.09 0.03 0.01 0.01 0.00 0.02 0.01 0.00 0.00 0.00 0.09 0.14 0.12 0.12 0.12 0.13 0.11 0.06 0.02 0.01 0.03 0.06 0.03 0.00 0.00 0.00 0.00 0.00 0.00 0.00 0.00 0.00 0.00 0.00 0.00 0.00 0.00 0.00 0.00 0.00 0.01
0.01 0.00 0.01 0.02 0.00 0.00 0.00 0.00 0.00 0.00 0.00 0.00 0.00 0.01 0.05 0.06 0.05 0.07 0.06 0.02 0.00 0.00 0.00 0.00 0.00 0.00 0.00 0.00 0.00 0.00 0.00 0.00 0.00 0.00 0.00 0.00 0.00 0.00 0.00 0.00 0.00 0.00 0.00 0.00
0.01 0.00 0.00 0.00 0.00 0.00 0.00 0.00 0.00 0.00 0.00 0.00 0.00 0.00 0.00 0.00 0.00 0.00 0.00 0.00 0.00 0.00 0.00 0.00 0.00 0.00 0.00 0.00 0.00 0.00 0.00 0.00 0.00 0.00 0.00 0.00 0.00 0.00 0.00 0.00 0.00 0.00 0.01 0.01
0.05 0.03 0.07 0.01 0.00 0.00 0.00 0.00 0.00 0.00 0.00 0.00 0.00 0.00 0.00 0.00 0.00 0.00 0.00 0.00 0.00 0.00 0.00 0.00 0.00 0.00 0.00 0.00 0.00 0.00 0.00 0.00 0.00 0.00 0.00 0.00 0.00 0.00 0.00 0.00 0.00 0.01 0.01 0.01
0.13 0.10 0.03 0.00 0.00 0.00 0.00 0.00 0.00 0.00 0.00 0.00 0.00 0.00 0.00 0.00 0.00 0.00 0.00 0.00 0.00 0.00 0.00 0.00 0.00 0.00 0.00 0.00 0.00 0.00 0.00 0.00 0.00 0.00 0.00 0.00 0.00 0.01 0.01 0.02 0.03 0.02 0.02 0.02
0.12 0.18 0.05 0.00 0.00 0.00 0.00 0.01 0.00 0.00 0.00 0.00 0.00 0.00 0.00 0.00 0.00 0.00 0.00 0.00 0.00 0.00 0.00 0.00 0.00 0.00 0.00 0.00 0.00 0.00 0.00 0.00 0.00 0.01 0.03 0.03 0.02 0.01 0.01 0.01 0.01 0.00 0.00 0.00
0.10 0.27 0.11 0.00 0.00 0.00 0.06 0.05 0.00 0.00 0.00 0.00 0.00 0.00 0.00 0.00 0.00 0.00 0.00 0.00 0.00 0.00 0.00 0.00 0.00 0.00 0.00 0.00 0.00 0.00 0.01 0.02 0.02 0.01 0.01 0.00 0.00 0.00 0.00 0.00 0.01 0.01 0.01 0.01
0.12 0.31 0.13 0.00 0.00 0.00 0.02 0.00 0.00 0.00 0.00 0.00 0.00 0.00 0.00 0.00 0.00 0.00 0.00 0.00 0.00 0.00 0.00 0.00 0.00 0.00 0.01 0.02 0.03 0.02 0.02 0.01 0.00 0.00 0.00 0.00 0.00 0.00 0.01 0.01 0.03 0.03 0.04 0.04
0.16 0.10 0.01 0.02 0.02 0.02 0.00 0.00 0.00 0.00 0.01 0.01 0.00 0.00 0.00 0.00 0.00 0.00 0.00 0.00 0.00 0.00 0.00 0.01 0.02 0.05 0.07 0.05 0.02 0.01 0.01 0.01 0.01 0.01 0.01 0.02 0.03 0.04 0.05 0.07 0.10 0.11 0.12 0.11
0.19 0.16 0.07 0.08 0.05 0.01 0.01 0.01 0.02 0.02 0.01 0.00 0.00 0.00 0.00 0.00 0.00 0.00 0.00 0.00 0.00 0.01 0.02 0.02 0.02 0.02 0.03 0.06 0.07 0.08 0.07 0.05 0.03 0.04 0.04 0.05 0.07 0.07 0.09 0.11 0.14 0.17 0.20 0.19
0.32 0.15 0.15 0.08 0.01 0.01 0.01 0.01 0.00 0.01 0.00 0.00 0.00 0.00 0.00 0.00 0.00 0.00 0.00 0.00 0.02 0.03 0.03 0.04 0.07 0.10 0.11 0.12 0.10 0.07 0.04 0.03 0.03 0.03 0.03 0.03 0.04 0.05 0.10 0.13 0.19 0.30 0.33 0.35
0.16 0.03 0.06 0.05 0.01 0.00 0.00 0.00 0.00 0.00 0.00 0.00 0.00 0.00 0.00 0.01 0.00 0.00 0.01 0.01 0.01 0.00 0.03 0.08 0.06 0.03 0.02 0.03 0.03 0.03 0.03 0.03 0.05 0.08 0.09 0.12 0.15 0.16 0.17 0.22 0.27 0.32 0.31 0.34
0.01 0.01 0.03 0.04 0.01 0.00 0.00 0.00 0.00 0.00 0.00 0.00 0.00 0.00 0.00 0.00 0.01 0.01 0.01 0.01 0.00 0.00 0.00 0.00 0.00 0.04 0.09 0.13 0.13 0.10 0.11 0.12 0.15 0.18 0.20 0.23 0.24 0.26 0.24 0.17 0.16 0.17 0.18 0.19
0.00 0.01 0.05 0.04 0.02 0.00 0.00 0.00 0.00 0.00 0.00 0.00 0.00 0.00 0.00 0.00 0.00 0.00 0.00 0.00 0.00 0.00 0.00 0.00 0.00 0.01 0.05 0.09 0.17 0.18 0.17 0.17 0.20 0.23 0.27 0.27 0.26 0.24 0.24 0.22 0.18 0.14 0.13 0.18
0.00 0.00 0.00 0.02 0.01 0.00 0.00 0.00 0.00 0.00 0.00 0.00 0.00 0.00 0.00 0.00 0.00 0.00 0.00 0.00 0.00 0.00 0.00 0.00 0.01 0.00 0.00 0.01 0.03 0.07 0.12 0.16 0.17 0.15 0.13 0.15 0.15 0.14 0.15 0.16 0.17 0.18 0.17 0.18
0.00 0.00 0.00 0.00 0.00 0.00 0.00 0.00 0.00 0.00 0.00 0.00 0.00 0.00 0.00 0.00 0.00 0.00 0.00 0.00 0.00 0.00 0.00 0.01 0.01 0.00 0.00 0.00 0.00 0.03 0.07 0.08 0.09 0.09 0.08 0.07 0.09 0.11 0.12 0.14 0.14 0.14 0.17 0.13
0.00 0.00 0.00 0.00 0.00 0.00 0.00 0.00 0.00 0.00 0.00 0.00 0.00 0.00 0.00 0.00 0.00 0.00 0.00 0.00 0.00 0.00 0.00 0.01 0.00 0.00 0.00 0.00 0.01 0.02 0.02 0.03 0.03 0.04 0.05 0.08 0.08 0.09 0.10 0.11 0.09 0.08 0.07 0.06
0.00 0.00 0.00 0.00 0.00 0.00 0.00 0.00 0.00 0.00 0.00 0.00 0.00 0.00 0.00 0.00 0.00 0.00 0.00 0.00 0.00 0.00 0.00 0.00 0.00 0.00 0.00 0.00 0.01 0.01 0.00 0.00 0.01 0.05 0.05 0.03 0.03 0.04 0.04 0.04 0.04 0.03 0.02 0.02
0.00 0.00 0.00 0.00 0.00 0.00 0.00 0.00 0.00 0.00 0.00 0.00 0.00 0.00 0.00 0.00 0.00 0.00 0.00 0.00 0.00 0.01 0.00 0.00 0.00 0.00 0.00 0.00 0.00 0.00 0.00 0.01 0.02 0.02 0.02 0.02 0.02 0.02 0.02 0.03 0.03 0.03 0.03 0.03
0.00 0.00 0.00 0.00 0.00 0.00 0.00 0.00 0.00 0.00 0.00 0.00 0.00 0.00 0.00 0.00 0.00 0.00 0.00 0.00 0.01 0.01 0.00 0.00 0.00 0.00 0.00 0.00 0.00 0.00 0.01 0.01 0.02 0.02 0.02 0.03 0.03 0.03 0.03 0.02 0.03 0.03 0.03 0.04
0.00 0.00 0.00 0.00 0.00 0.00 0.00 0.00 0.00 0.00 0.00 0.00 0.00 0.00 0.00 0.00 0.00 0.00 0.00 0.00 0.00 0.00 0.00 0.00 0.00 0.00 0.00 0.00 0.00 0.00 0.01 0.02 0.02 0.04 0.04 0.04 0.04 0.04 0.04 0.03 0.03 0.04 0.04 0.03
0.00 0.00 0.00 0.00 0.00 0.00 0.00 0.00 0.00 0.00 0.00 0.00 0.00 0.00 0.00 0.00 0.00 0.00 0.00 0.00 0.00 0.00 0.00 0.00 0.00 0.00 0.00 0.00 0.00 0.01 0.01 0.02 0.02 0.03 0.04 0.05 0.05 0.05 0.04 0.04 0.04 0.04 0.03 0.03
0.00 0.00 0.00 0.00 0.00 0.00 0.00 0.00 0.00 0.00 0.00 0.00 0.00 0.00 0.00 0.00 0.00 0.00 0.01 0.00 0.00 0.00 0.00 0.00 0.00 0.00 0.00 0.01 0.01 0.01 0.02 0.02 0.03 0.03 0.04 0.05 0.06 0.07 0.07 0.06 0.04 0.05 0.05 0.04
0.00 0.00 0.00 0.00 0.00 0.00 0.00 0.00 0.00 0.00 0.00 0.00 0.00 0.00 0.00 0.00 0.00 0.00 0.00 0.00 0.00 0.00 0.00 0.00 0.00 0.00 0.00 0.01 0.01 0.01 0.01 0.02 0.02 0.03 0.03 0.04 0.04 0.04 0.04 0.05 0.06 0.04 0.04 0.04
0.00 0.00 0.00 0.00 0.00 0.00 0.00 0.00 0.00 0.00 0.00 0.00 0.00 0.00 0.00 0.00 0.00 0.00 0.00 0.00 0.00 0.00 0.00 0.00 0.00 0.00 0.00 0.00 0.00 0.01 0.01 0.02 0.02 0.04 0.04 0.05 0.04 0.05 0.05 0.06 0.06 0.05 0.06 0.06
0.00 0.00 0.00 0.00 0.00 0.00 0.00 0.00 0.00 0.00 0.00 0.00 0.00 0.00 0.00 0.00 0.00 0.00 0.00 0.00 0.00 0.00 0.00 0.00 0.00 0.00 0.00 0.00 0.00 0.01 0.01 0.02 0.03 0.03 0.04 0.03 0.04 0.06 0.06 0.06 0.06 0.06 0.06 0.05
0.00 0.00 0.00 0.00 0.00 0.00 0.00 0.00 0.00 0.00 0.00 0.00 0.00 0.00 0.00 0.00 0.00 0.00 0.00 0.00 0.00 0.00 0.00 0.00 0.00 0.00 0.00 0.00 0.01 0.01 0.01 0.01 0.02 0.03 0.02 0.03 0.05 0.07 0.07 0.06 0.05 0.05 0.06 0.05

GFSNGP_prec_precacc24_258.txt.gz
Total_Precipitation_Accumulation
0.09 0.09 0.11 0.09 0.03 0.01 0.01 0.00 0.02 0.01 0.00 0.00 0.00 0.00 0.00 0.01 0.06 0.10 0.13 0.11 0.06 0.02 0.01 0.03 0.06 0.03 0.00 0.00 0.00 0.00 0.00 0.00 0.00 0.00 0.00 0.00 0.00 0.00 0.00 0.00 0.00 0.00 0.00 0.01
0.01 0.00 0.01 0.02 0.00 0.00 0.00 0.00 0.00 0.00 0.00 0.00 0.00 0.00 0.02 0.03 0.05 0.07 0.06 0.02 0.00 0.00 0.00 0.00 0.00 0.00 0.00 0.00 0.00 0.00 0.00 0.00 0.00 0.00 0.00 0.00 0.00 0.00 0.00 0.00 0.00 0.00 0.00 0.00
0.01 0.00 0.00 0.00 0.00 0.00 0.00 0.00 0.00 0.00 0.00 0.00 0.00 0.00 0.00 0.00 0.00 0.00 0.00 0.00 0.00 0.00 0.00 0.00 0.00 0.00 0.00 0.00 0.00 0.00 0.00 0.00 0.00 0.00 0.00 0.00 0.00 0.00 0.00 0.00 0.00 0.00 0.01 0.01
0.04 0.03 0.06 0.00 0.00 0.00 0.00 0.00 0.00 0.00 0.00 0.00 0.00 0.00 0.00 0.00 0.00 0.00 0.00 0.00 0.00 0.00 0.00 0.00 0.00 0.00 0.00 0.00 0.00 0.00 0.00 0.00 0.00 0.00 0.00 0.00 0.00 0.00 0.00 0.00 0.00 0.01 0.01 0.01
0.10 0.08 0.02 0.00 0.00 0.00 0.00 0.00 0.00 0.00 0.00 0.00 0.00 0.00 0.00 0.00 0.00 0.00 0.00 0.00 0.00 0.00 0.00 0.00 0.00 0.00 0.00 0.00 0.00 0.00 0.00 0.00 0.00 0.00 0.00 0.00 0.00 0.01 0.01 0.02 0.03 0.02 0.02 0.02
0.08 0.14 0.04 0.00 0.00 0.00 0.00 0.01 0.00 0.00 0.00 0.00 0.00 0.00 0.00 0.00 0.00 0.00 0.00 0.00 0.00 0.00 0.00 0.00 0.00 0.00 0.00 0.00 0.00 0.00 0.00 0.00 0.00 0.01 0.03 0.03 0.02 0.01 0.01 0.01 0.01 0.00 0.00 0.00
0.09 0.21 0.07 0.00 0.00 0.00 0.04 0.04 0.00 0.00 0.00 0.00 0.00 0.00 0.00 0.00 0.00 0.00 0.00 0.00 0.00 0.00 0.00 0.00 0.00 0.00 0.00 0.00 0.00 0.00 0.01 0.02 0.02 0.01 0.01 0.00 0.00 0.00 0.00 0.00 0.01 0.01 0.01 0.01
0.10 0.23 0.10 0.00 0.00 0.00 0.01 0.00 0.00 0.00 0.00 0.00 0.00 0.00 0.00 0.00 0.00 0.00 0.00 0.00 0.00 0.00 0.00 0.00 0.00 0.00 0.01 0.02 0.03 0.02 0.02 0.01 0.00 0.00 0.00 0.00 0.00 0.00 0.01 0.01 0.03 0.03 0.04 0.04
0.12 0.08 0.01 0.02 0.02 0.02 0.00 0.00 0.00 0.00 0.01 0.01 0.00 0.00 0.00 0.00 0.00 0.00 0.00 0.00 0.00 0.00 0.00 0.00 0.02 0.04 0.07 0.05 0.02 0.01 0.01 0.01 0.01 0.01 0.01 0.02 0.03 0.04 0.05 0.07 0.10 0.11 0.12 0.11
0.17 0.14 0.06 0.08 0.05 0.01 0.01 0.01 0.02 0.02 0.01 0.00 0.00 0.00 0.00 0.00 0.00 0.00 0.00 0.00 0.00 0.01 0.01 0.01 0.01 0.01 0.01 0.02 0.06 0.08 0.07 0.05 0.03 0.04 0.04 0.05 0.07 0.07 0.09 0.11 0.14 0.17 0.20 0.20
0.28 0.13 0.14 0.08 0.01 0.01 0.01 0.01 0.00 0.01 0.00 0.00 0.00 0.00 0.00 0.00 0.00 0.00 0.00 0.00 0.00 0.00 0.00 0.00 0.00 0.00 0.00 0.01 0.04 0.05 0.04 0.03 0.03 0.03 0.03 0.03 0.04 0.05 0.10 0.13 0.19 0.30 0.33 0.35
0.15 0.03 0.05 0.05 0.01 0.00 0.00 0.00 0.00 0.00 0.00 0.00 0.00 0.00 0.00 0.00 0.00 0.00 0.00 0.00 0.00 0.00 0.00 0.00 0.00 0.00 0.00 0.00 0.00 0.00 0.01 0.02 0.05 0.08 0.09 0.12 0.15 0.16 0.17 0.22 0.27 0.32 0.31 0.35
0.00 0.01 0.03 0.04 0.01 0.00 0.00 0.00 0.00 0.00 0.00 0.00 0.00 0.00 0.00 0.00 0.00 0.00 0.00 0.00 0.00 0.00 0.00 0.00 0.00 0.00 0.00 0.00 0.00 0.01 0.02 0.05 0.11 0.17 0.20 0.23 0.24 0.26 0.24 0.17 0.16 0.17 0.18 0.19
0.00 0.01 0.05 0.04 0.02 0.00 0.00 0.00 0.00 0.00 0.00 0.00 0.00 0.00 0.00 0.00 0.00 0.00 0.00 0.00 0.00 0.00 0.00 0.00 0.00 0.00 0.00 0.00 0.00 0.00 0.01 0.04 0.10 0.14 0.18 0.21 0.24 0.24 0.24 0.21 0.17 0.13 0.13 0.18
0.00 0.00 0.00 0.02 0.01 0.00 0.00 0.00 0.00 0.00 0.00 0.00 0.00 0.00 0.00 0.00 0.00 0.00 0.00 0.00 0.00 0.00 0.00 0.00 0.00 0.00 0.00 0.00 0.00 0.00 0.01 0.03 0.05 0.07 0.09 0.12 0.13 0.14 0.14 0.16 0.17 0.18 0.17 0.18
0.00 0.00 0.00 0.00 0.00 0.00 0.00 0.00 0.00 0.00 0.00 0.00 0.00 0.00 0.00 0.00 0.00 0.00 0.00 0.00 0.00 0.00 0.00 0.00 0.01 0.00 0.00 0.00 0.00 0.00 0.01 0.00 0.00 0.01 0.03 0.04 0.07 0.09 0.11 0.14 0.14 0.14 0.17 0.13
0.00 0.00 0.00 0.00 0.00 0.00 0.00 0.00 0.00 0.00 0.00 0.00 0.00 0.00 0.00 0.00 0.00 0.00 0.00 0.00 0.00 0.00 0.00 0.00 0.00 0.00 0.00 0.00 0.00 0.01 0.01 0.00 0.00 0.01 0.01 0.03 0.04 0.05 0.07 0.10 0.09 0.08 0.07 0.06
0.00 0.00 0.00 0.00 0.00 0.00 0.00 0.00 0.00 0.00 0.00 0.00 0.00 0.00 0.00 0.00 0.00 0.00 0.00 0.00 0.00 0.00 0.00 0.00 0.00 0.00 0.00 0.00 0.01 0.01 0.00 0.00 0.00 0.01 0.01 0.02 0.02 0.02 0.03 0.03 0.04 0.04 0.02 0.03
0.00 0.00 0.00 0.00 0.00 0.00 0.00 0.00 0.00 0.00 0.00 0.00 0.00 0.00 0.00 0.00 0.00 0.00 0.00 0.00 0.00 0.00 0.00 0.00 0.00 0.00 0.00 0.00 0.00 0.00 0.00 0.01 0.01 0.01 0.02 0.02 0.02 0.02 0.02 0.03 0.03 0.03 0.03 0.03
0.00 0.00 0.00 0.00 0.00 0.00 0.00 0.00 0.00 0.00 0.00 0.00 0.00 0.00 0.00 0.00 0.00 0.00 0.00 0.00 0.00 0.00 0.00 0.00 0.00 0.00 0.00 0.00 0.00 0.00 0.01 0.01 0.02 0.02 0.02 0.03 0.03 0.03 0.03 0.02 0.03 0.03 0.03 0.04
0.00 0.00 0.00 0.00 0.00 0.00 0.00 0.00 0.00 0.00 0.00 0.00 0.00 0.00 0.00 0.00 0.00 0.00 0.00 0.00 0.00 0.00 0.00 0.00 0.00 0.00 0.00 0.00 0.00 0.00 0.01 0.02 0.02 0.03 0.04 0.04 0.04 0.04 0.04 0.03 0.03 0.04 0.04 0.03
0.00 0.00 0.00 0.00 0.00 0.00 0.00 0.00 0.00 0.00 0.00 0.00 0.00 0.00 0.00 0.00 0.00 0.00 0.00 0.00 0.00 0.00 0.00 0.00 0.00 0.00 0.00 0.00 0.00 0.00 0.00 0.01 0.02 0.02 0.03 0.04 0.05 0.05 0.04 0.04 0.04 0.04 0.03 0.03
0.00 0.00 0.00 0.00 0.00 0.00 0.00 0.00 0.00 0.00 0.00 0.00 0.00 0.00 0.00 0.00 0.00 0.00 0.00 0.00 0.00 0.00 0.00 0.00 0.00 0.00 0.00 0.00 0.00 0.00 0.00 0.01 0.01 0.02 0.03 0.04 0.05 0.06 0.06 0.04 0.04 0.04 0.04 0.04
0.00 0.00 0.00 0.00 0.00 0.00 0.00 0.00 0.00 0.00 0.00 0.00 0.00 0.00 0.00 0.00 0.00 0.00 0.00 0.00 0.00 0.00 0.00 0.00 0.00 0.00 0.00 0.00 0.00 0.01 0.00 0.01 0.02 0.02 0.02 0.03 0.04 0.04 0.04 0.04 0.05 0.04 0.04 0.04
0.00 0.00 0.00 0.00 0.00 0.00 0.00 0.00 0.00 0.00 0.00 0.00 0.00 0.00 0.00 0.00 0.00 0.00 0.00 0.00 0.00 0.00 0.00 0.00 0.00 0.00 0.00 0.00 0.00 0.00 0.01 0.02 0.01 0.02 0.03 0.03 0.03 0.03 0.04 0.05 0.05 0.05 0.05 0.05
0.00 0.00 0.00 0.00 0.00 0.00 0.00 0.00 0.00 0.00 0.00 0.00 0.00 0.00 0.00 0.00 0.00 0.00 0.00 0.00 0.00 0.00 0.00 0.00 0.00 0.00 0.00 0.00 0.00 0.01 0.01 0.01 0.01 0.02 0.03 0.02 0.02 0.04 0.05 0.04 0.04 0.04 0.05 0.05
0.00 0.00 0.00 0.00 0.00 0.00 0.00 0.00 0.00 0.00 0.00 0.00 0.00 0.00 0.00 0.00 0.00 0.00 0.00 0.00 0.00 0.00 0.00 0.00 0.00 0.00 0.00 0.00 0.00 0.00 0.01 0.01 0.01 0.02 0.02 0.03 0.04 0.05 0.05 0.05 0.04 0.05 0.05 0.05